Wetterdaten: Samstag, 25.06.2022
Datum Zeit Temp. Aussen Temp. o. S. Temp +5cm Feuchte Auss Luftdruck Regen Sonnenschein Regendauer Solar Windben Empfang
25.06.2022 00:00 19,6 C 18,9 C 15,6 C 87 % 1009,2 hPa 0,0 l/m 0 min 0 min 0 W/m 9,7 km/h (2 Bft) 95,65 %
25.06.2022 00:02 19,6 C 18,9 C 15,6 C 87 % 1009,2 hPa 0,0 l/m 0 min 0 min 0 W/m 6,4 km/h (2 Bft) 97,78 %
25.06.2022 00:04 19,6 C 18,3 C 15,6 C 87 % 1009,2 hPa 0,0 l/m 0 min 0 min 0 W/m 9,7 km/h (2 Bft) 97,87 %
25.06.2022 00:10 19,4 C 18,3 C 15,6 C 87 % 1009,3 hPa 0,0 l/m 0 min 0 min 0 W/m 16,1 km/h (3 Bft) 97,01 %
25.06.2022 00:12 19,4 C 18,3 C 15,6 C 87 % 1009,3 hPa 0,0 l/m 0 min 0 min 0 W/m 12,9 km/h (3 Bft) 93,62 %
25.06.2022 00:14 19,4 C 18,3 C 15,6 C 87 % 1009,2 hPa 0,0 l/m 0 min 0 min 0 W/m 12,9 km/h (3 Bft) 95,65 %
25.06.2022 00:16 19,4 C 18,3 C 15,6 C 87 % 1009,2 hPa 0,0 l/m 0 min 0 min 0 W/m 9,7 km/h (2 Bft) 95,74 %
25.06.2022 00:18 19,3 C 18,3 C 15,6 C 87 % 1009,2 hPa 0,0 l/m 0 min 0 min 0 W/m 16,1 km/h (3 Bft) 95,74 %
25.06.2022 00:20 19,3 C 18,3 C 15,6 C 87 % 1009,3 hPa 0,0 l/m 0 min 0 min 0 W/m 6,4 km/h (2 Bft) 93,62 %
25.06.2022 00:22 19,3 C 18,3 C 15,6 C 87 % 1009,3 hPa 0,0 l/m 0 min 0 min 0 W/m 6,4 km/h (2 Bft) 95,74 %
25.06.2022 00:24 19,3 C 18,3 C 15,6 C 87 % 1009,3 hPa 0,0 l/m 0 min 0 min 0 W/m 6,4 km/h (2 Bft) 95,74 %
25.06.2022 00:26 19,3 C 18,3 C 15,6 C 87 % 1009,3 hPa 0,0 l/m 0 min 0 min 0 W/m 3,2 km/h (1 Bft) 97,83 %
25.06.2022 00:28 19,3 C 18,3 C 15,6 C 87 % 1009,3 hPa 0,0 l/m 0 min 0 min 0 W/m 12,9 km/h (3 Bft) 97,87 %
25.06.2022 00:30 19,2 C 18,3 C 15,6 C 87 % 1009,3 hPa 0,0 l/m 0 min 0 min 0 W/m 6,4 km/h (2 Bft) 97,87 %
25.06.2022 00:32 19,2 C 18,3 C 15,6 C 87 % 1009,3 hPa 0,0 l/m 0 min 0 min 0 W/m 3,2 km/h (1 Bft) 97,87 %
25.06.2022 00:34 19,2 C 18,3 C 15,0 C 87 % 1009,3 hPa 0,0 l/m 0 min 0 min 0 W/m 6,4 km/h (2 Bft) 97,87 %
25.06.2022 00:36 19,1 C 18,3 C 15,0 C 87 % 1009,2 hPa 0,0 l/m 0 min 0 min 0 W/m 3,2 km/h (1 Bft) 100,00 %
25.06.2022 00:38 19,1 C 18,3 C 15,0 C 87 % 1009,2 hPa 0,0 l/m 0 min 0 min 0 W/m 9,7 km/h (2 Bft) 97,83 %
25.06.2022 00:40 19,1 C 18,3 C 15,0 C 87 % 1009,3 hPa 0,0 l/m 0 min 0 min 0 W/m 3,2 km/h (1 Bft) 97,87 %
25.06.2022 00:42 19,1 C 18,3 C 15,0 C 87 % 1009,2 hPa 0,0 l/m 0 min 0 min 0 W/m 6,4 km/h (2 Bft) 100,00 %
25.06.2022 00:44 19,1 C 18,3 C 15,0 C 86 % 1009,2 hPa 0,0 l/m 0 min 0 min 0 W/m 6,4 km/h (2 Bft) 100,00 %
25.06.2022 00:46 19,0 C 17,8 C 15,0 C 86 % 1009,2 hPa 0,0 l/m 0 min 0 min 0 W/m 6,4 km/h (2 Bft) 100,00 %
25.06.2022 00:48 19,0 C 17,8 C 15,0 C 86 % 1009,2 hPa 0,0 l/m 0 min 0 min 0 W/m 9,7 km/h (2 Bft) 100,00 %
25.06.2022 00:50 18,9 C 17,8 C 15,0 C 86 % 1009,2 hPa 0,0 l/m 0 min 0 min 0 W/m 6,4 km/h (2 Bft) 100,00 %
25.06.2022 00:52 18,9 C 17,8 C 15,0 C 86 % 1009,2 hPa 0,0 l/m 0 min 0 min 0 W/m 6,4 km/h (2 Bft) 100,00 %
25.06.2022 00:54 18,9 C 17,8 C 15,0 C 86 % 1009,2 hPa 0,0 l/m 0 min 0 min 0 W/m 9,7 km/h (2 Bft) 97,87 %
25.06.2022 00:56 18,9 C 17,8 C 15,0 C 86 % 1009,1 hPa 0,0 l/m 0 min 0 min 0 W/m 3,2 km/h (1 Bft) 100,00 %
25.06.2022 00:58 18,8 C 17,8 C 15,0 C 86 % 1009,1 hPa 0,0 l/m 0 min 0 min 0 W/m 6,4 km/h (2 Bft) 97,87 %
25.06.2022 01:00 18,8 C 17,8 C 15,0 C 86 % 1009,2 hPa 0,0 l/m 0 min 0 min 0 W/m 6,4 km/h (2 Bft) 95,65 %
25.06.2022 01:02 18,8 C 17,8 C 15,0 C 86 % 1009,2 hPa 0,0 l/m 0 min 0 min 0 W/m 6,4 km/h (2 Bft) 97,87 %
25.06.2022 01:04 18,8 C 17,8 C 15,0 C 86 % 1009,2 hPa 0,0 l/m 0 min 0 min 0 W/m 3,2 km/h (1 Bft) 97,87 %
25.06.2022 01:06 18,8 C 17,8 C 15,0 C 86 % 1009,2 hPa 0,0 l/m 0 min 0 min 0 W/m 3,2 km/h (1 Bft) 97,87 %
25.06.2022 01:08 18,8 C 17,8 C 15,0 C 86 % 1009,3 hPa 0,0 l/m 0 min 0 min 0 W/m 3,2 km/h (1 Bft) 97,87 %
25.06.2022 01:10 18,7 C 17,8 C 15,0 C 86 % 1009,2 hPa 0,0 l/m 0 min 0 min 0 W/m 6,4 km/h (2 Bft) 95,74 %
25.06.2022 01:12 18,7 C 17,8 C 15,0 C 86 % 1009,3 hPa 0,0 l/m 0 min 0 min 0 W/m 3,2 km/h (1 Bft) 97,83 %
25.06.2022 01:14 18,7 C 17,8 C 15,0 C 87 % 1009,3 hPa 0,0 l/m 0 min 0 min 0 W/m 3,2 km/h (1 Bft) 97,87 %
25.06.2022 01:16 18,7 C 17,8 C 15,0 C 87 % 1009,3 hPa 0,0 l/m 0 min 0 min 0 W/m 6,4 km/h (2 Bft) 97,87 %
25.06.2022 01:18 18,7 C 17,8 C 14,4 C 87 % 1009,3 hPa 0,0 l/m 0 min 0 min 0 W/m 3,2 km/h (1 Bft) 95,74 %
25.06.2022 01:20 18,6 C 17,8 C 14,4 C 87 % 1009,3 hPa 0,0 l/m 0 min 0 min 0 W/m 6,4 km/h (2 Bft) 97,87 %
25.06.2022 01:22 18,6 C 17,8 C 14,4 C 87 % 1009,3 hPa 0,0 l/m 0 min 0 min 0 W/m 3,2 km/h (1 Bft) 95,74 %
25.06.2022 01:24 18,6 C 17,8 C 14,4 C 87 % 1009,3 hPa 0,0 l/m 0 min 0 min 0 W/m 6,4 km/h (2 Bft) 97,83 %
25.06.2022 01:26 18,6 C 17,8 C 14,4 C 87 % 1009,3 hPa 0,0 l/m 0 min 0 min 0 W/m 3,2 km/h (1 Bft) 97,87 %
25.06.2022 01:28 18,6 C 17,8 C 14,4 C 87 % 1009,4 hPa 0,0 l/m 0 min 0 min 0 W/m 6,4 km/h (2 Bft) 97,87 %
25.06.2022 01:30 18,6 C 17,8 C 14,4 C 87 % 1009,3 hPa 0,0 l/m 0 min 0 min 0 W/m 3,2 km/h (1 Bft) 97,87 %
25.06.2022 01:32 18,6 C 17,8 C 14,4 C 87 % 1009,3 hPa 0,0 l/m 0 min 0 min 0 W/m 3,2 km/h (1 Bft) 97,87 %
25.06.2022 01:34 18,5 C 17,8 C 14,4 C 87 % 1009,3 hPa 0,0 l/m 0 min 0 min 0 W/m 3,2 km/h (1 Bft) 97,87 %
25.06.2022 01:36 18,5 C 17,8 C 14,4 C 87 % 1009,3 hPa 0,0 l/m 0 min 0 min 0 W/m 3,2 km/h (1 Bft) 95,65 %
25.06.2022 01:38 18,5 C 17,2 C 14,4 C 87 % 1009,3 hPa 0,0 l/m 0 min 0 min 0 W/m 3,2 km/h (1 Bft) 97,87 %
25.06.2022 01:40 18,5 C 17,2 C 14,4 C 87 % 1009,4 hPa 0,0 l/m 0 min 0 min 0 W/m 3,2 km/h (1 Bft) 97,87 %
25.06.2022 01:42 18,4 C 17,2 C 14,4 C 87 % 1009,4 hPa 0,0 l/m 0 min 0 min 0 W/m 3,2 km/h (1 Bft) 97,87 %
25.06.2022 01:44 18,4 C 17,2 C 14,4 C 87 % 1009,4 hPa 0,0 l/m 0 min 0 min 0 W/m 3,2 km/h (1 Bft) 97,87 %
25.06.2022 01:46 18,4 C 17,2 C 14,4 C 87 % 1009,4 hPa 0,0 l/m 0 min 0 min 0 W/m 6,4 km/h (2 Bft) 95,74 %
25.06.2022 01:48 18,4 C 17,2 C 14,4 C 88 % 1009,4 hPa 0,0 l/m 0 min 0 min 0 W/m 3,2 km/h (1 Bft) 100,00 %
25.06.2022 01:50 18,3 C 17,2 C 14,4 C 88 % 1009,4 hPa 0,0 l/m 0 min 0 min 0 W/m 3,2 km/h (1 Bft) 97,87 %
25.06.2022 01:52 18,3 C 17,2 C 14,4 C 88 % 1009,5 hPa 0,0 l/m 0 min 0 min 0 W/m 3,2 km/h (1 Bft) 95,74 %
25.06.2022 01:54 18,3 C 17,2 C 14,4 C 88 % 1009,5 hPa 0,0 l/m 0 min 0 min 0 W/m 3,2 km/h (1 Bft) 100,00 %
25.06.2022 01:56 18,3 C 17,2 C 14,4 C 88 % 1009,5 hPa 0,0 l/m 0 min 0 min 0 W/m 3,2 km/h (1 Bft) 100,00 %
25.06.2022 01:58 18,3 C 17,2 C 13,9 C 88 % 1009,5 hPa 0,0 l/m 0 min 0 min 0 W/m 3,2 km/h (1 Bft) 100,00 %
25.06.2022 02:00 18,3 C 17,2 C 13,9 C 88 % 1009,5 hPa 0,0 l/m 0 min 0 min 0 W/m 3,2 km/h (1 Bft) 95,65 %
25.06.2022 02:02 18,2 C 16,7 C 13,9 C 88 % 1009,6 hPa 0,0 l/m 0 min 0 min 0 W/m 3,2 km/h (1 Bft) 97,87 %
25.06.2022 02:04 18,2 C 16,7 C 13,9 C 88 % 1009,6 hPa 0,0 l/m 0 min 0 min 0 W/m 3,2 km/h (1 Bft) 95,74 %
25.06.2022 02:06 18,2 C 16,7 C 13,9 C 88 % 1009,6 hPa 0,0 l/m 0 min 0 min 0 W/m 3,2 km/h (1 Bft) 97,87 %
25.06.2022 02:08 18,1 C 16,7 C 13,9 C 88 % 1009,6 hPa 0,0 l/m 0 min 0 min 0 W/m 3,2 km/h (1 Bft) 97,87 %
25.06.2022 02:10 18,1 C 16,7 C 13,9 C 88 % 1009,7 hPa 0,0 l/m 0 min 0 min 0 W/m 3,2 km/h (1 Bft) 97,87 %
25.06.2022 02:12 18,0 C 16,7 C 13,9 C 88 % 1009,6 hPa 0,0 l/m 0 min 0 min 0 W/m 3,2 km/h (1 Bft) 95,74 %
25.06.2022 02:14 18,0 C 16,7 C 13,9 C 88 % 1009,7 hPa 0,0 l/m 0 min 0 min 0 W/m 3,2 km/h (1 Bft) 97,87 %
25.06.2022 02:16 17,9 C 16,7 C 13,9 C 89 % 1009,7 hPa 0,0 l/m 0 min 0 min 0 W/m 3,2 km/h (1 Bft) 97,87 %
25.06.2022 02:18 17,9 C 16,7 C 13,9 C 89 % 1009,6 hPa 0,0 l/m 0 min 0 min 0 W/m 6,4 km/h (2 Bft) 95,74 %
25.06.2022 02:20 17,8 C 16,7 C 13,9 C 89 % 1009,6 hPa 0,0 l/m 0 min 0 min 0 W/m 3,2 km/h (1 Bft) 95,65 %
25.06.2022 02:22 17,8 C 16,7 C 13,9 C 89 % 1009,7 hPa 0,0 l/m 0 min 0 min 0 W/m 3,2 km/h (1 Bft) 95,74 %
25.06.2022 02:24 17,8 C 16,7 C 13,9 C 89 % 1009,6 hPa 0,0 l/m 0 min 0 min 0 W/m 3,2 km/h (1 Bft) 95,45 %
25.06.2022 02:26 17,7 C 16,7 C 13,9 C 89 % 1009,7 hPa 0,0 l/m 0 min 0 min 0 W/m 3,2 km/h (1 Bft) 95,65 %
25.06.2022 02:28 17,7 C 16,7 C 13,9 C 89 % 1009,7 hPa 0,0 l/m 0 min 0 min 0 W/m 0,0 km/h (0 Bft) 95,74 %
25.06.2022 02:30 17,7 C 16,7 C 13,9 C 89 % 1009,7 hPa 0,0 l/m 0 min 0 min 0 W/m 3,2 km/h (1 Bft) 97,87 %
25.06.2022 02:32 17,7 C 16,7 C 13,9 C 89 % 1009,7 hPa 0,0 l/m 0 min 0 min 0 W/m 3,2 km/h (1 Bft) 97,87 %
25.06.2022 02:34 17,7 C 16,7 C 13,9 C 89 % 1009,8 hPa 0,0 l/m 0 min 0 min 0 W/m 3,2 km/h (1 Bft) 97,87 %
25.06.2022 02:36 17,7 C 16,7 C 13,9 C 90 % 1009,8 hPa 0,0 l/m 0 min 0 min 0 W/m 3,2 km/h (1 Bft) 97,96 %
25.06.2022 02:38 17,6 C 16,7 C 13,9 C 90 % 1009,8 hPa 0,0 l/m 0 min 0 min 0 W/m 3,2 km/h (1 Bft) 97,87 %
25.06.2022 02:40 17,6 C 16,7 C 13,9 C 90 % 1009,7 hPa 0,0 l/m 0 min 0 min 0 W/m 3,2 km/h (1 Bft) 95,74 %
25.06.2022 02:42 17,6 C 16,7 C 13,9 C 90 % 1009,8 hPa 0,0 l/m 0 min 0 min 0 W/m 3,2 km/h (1 Bft) 97,92 %
25.06.2022 02:44 17,6 C 16,7 C 13,9 C 90 % 1009,8 hPa 0,0 l/m 0 min 0 min 0 W/m 6,4 km/h (2 Bft) 97,83 %
25.06.2022 02:46 17,5 C 16,1 C 13,3 C 90 % 1009,8 hPa 0,0 l/m 0 min 0 min 0 W/m 6,4 km/h (2 Bft) 97,87 %
25.06.2022 02:48 17,5 C 16,1 C 13,3 C 90 % 1009,9 hPa 0,0 l/m 0 min 0 min 0 W/m 6,4 km/h (2 Bft) 97,87 %
25.06.2022 02:50 17,4 C 16,1 C 13,3 C 90 % 1009,9 hPa 0,0 l/m 0 min 0 min 0 W/m 3,2 km/h (1 Bft) 100,00 %
25.06.2022 02:56 17,4 C 16,1 C 13,3 C 90 % 1009,9 hPa 0,0 l/m 0 min 0 min 0 W/m 3,2 km/h (1 Bft) 100,00 %
25.06.2022 02:58 17,4 C 16,1 C 13,3 C 90 % 1009,9 hPa 0,0 l/m 0 min 0 min 0 W/m 6,4 km/h (2 Bft) 100,00 %
25.06.2022 03:00 17,3 C 16,7 C 13,3 C 90 % 1009,9 hPa 0,0 l/m 0 min 0 min 0 W/m 3,2 km/h (1 Bft) 97,87 %
25.06.2022 03:02 17,3 C 16,7 C 13,3 C 90 % 1009,9 hPa 0,0 l/m 0 min 0 min 0 W/m 3,2 km/h (1 Bft) 97,83 %
25.06.2022 03:04 17,3 C 16,7 C 13,3 C 91 % 1010,0 hPa 0,0 l/m 0 min 0 min 0 W/m 3,2 km/h (1 Bft) 100,00 %
25.06.2022 03:06 17,3 C 16,7 C 13,3 C 91 % 1010,0 hPa 0,0 l/m 0 min 0 min 0 W/m 3,2 km/h (1 Bft) 100,00 %
25.06.2022 03:08 17,3 C 16,7 C 13,3 C 91 % 1010,0 hPa 0,0 l/m 0 min 0 min 0 W/m 3,2 km/h (1 Bft) 100,00 %
25.06.2022 03:10 17,3 C 16,7 C 13,3 C 91 % 1010,0 hPa 0,0 l/m 0 min 0 min 0 W/m 3,2 km/h (1 Bft) 100,00 %
25.06.2022 03:12 17,3 C 16,1 C 13,3 C 91 % 1010,1 hPa 0,0 l/m 0 min 0 min 0 W/m 3,2 km/h (1 Bft) 100,00 %
25.06.2022 03:14 17,2 C 16,1 C 13,3 C 91 % 1010,1 hPa 0,0 l/m 0 min 0 min 0 W/m 3,2 km/h (1 Bft) 100,00 %
25.06.2022 03:16 17,2 C 16,1 C 13,3 C 91 % 1010,1 hPa 0,0 l/m 0 min 0 min 0 W/m 6,4 km/h (2 Bft) 100,00 %
25.06.2022 03:18 17,2 C 16,1 C 13,3 C 91 % 1010,1 hPa 0,0 l/m 0 min 0 min 0 W/m 3,2 km/h (1 Bft) 97,83 %
25.06.2022 03:20 17,2 C 16,1 C 13,3 C 91 % 1010,2 hPa 0,0 l/m 0 min 0 min 0 W/m 3,2 km/h (1 Bft) 100,00 %
25.06.2022 03:22 17,2 C 16,1 C 13,3 C 91 % 1010,2 hPa 0,0 l/m 0 min 0 min 0 W/m 3,2 km/h (1 Bft) 100,00 %
25.06.2022 03:24 17,1 C 16,1 C 13,3 C 91 % 1010,2 hPa 0,0 l/m 0 min 0 min 0 W/m 6,4 km/h (2 Bft) 100,00 %
25.06.2022 03:26 17,1 C 16,1 C 13,3 C 91 % 1010,3 hPa 0,0 l/m 0 min 0 min 0 W/m 3,2 km/h (1 Bft) 97,87 %
25.06.2022 03:28 17,1 C 16,1 C 13,3 C 91 % 1010,3 hPa 0,0 l/m 0 min 0 min 0 W/m 6,4 km/h (2 Bft) 100,00 %
25.06.2022 03:30 17,1 C 16,1 C 13,3 C 91 % 1010,3 hPa 0,0 l/m 0 min 0 min 0 W/m 6,4 km/h (2 Bft) 100,00 %
25.06.2022 03:32 17,1 C 16,1 C 13,3 C 91 % 1010,4 hPa 0,0 l/m 0 min 0 min 0 W/m 3,2 km/h (1 Bft) 100,00 %
25.06.2022 03:34 17,0 C 16,1 C 13,3 C 91 % 1010,4 hPa 0,0 l/m 0 min 0 min 0 W/m 3,2 km/h (1 Bft) 100,00 %
25.06.2022 03:36 17,0 C 16,1 C 13,3 C 91 % 1010,4 hPa 0,0 l/m 0 min 0 min 0 W/m 3,2 km/h (1 Bft) 98,31 %
25.06.2022 03:38 17,0 C 16,1 C 13,3 C 91 % 1010,4 hPa 0,0 l/m 0 min 0 min 0 W/m 3,2 km/h (1 Bft) 100,00 %
25.06.2022 03:40 17,0 C 16,1 C 13,3 C 91 % 1010,4 hPa 0,0 l/m 0 min 0 min 0 W/m 3,2 km/h (1 Bft) 100,00 %
25.06.2022 03:42 17,0 C 16,1 C 13,3 C 91 % 1010,4 hPa 0,0 l/m 0 min 0 min 0 W/m 3,2 km/h (1 Bft) 100,00 %
25.06.2022 03:44 16,9 C 16,1 C 13,3 C 91 % 1010,4 hPa 0,0 l/m 0 min 0 min 0 W/m 3,2 km/h (1 Bft) 100,00 %
25.06.2022 03:46 16,9 C 16,1 C 13,3 C 91 % 1010,4 hPa 0,0 l/m 0 min 0 min 0 W/m 3,2 km/h (1 Bft) 97,87 %
25.06.2022 03:48 16,9 C 16,1 C 13,3 C 92 % 1010,4 hPa 0,0 l/m 0 min 0 min 0 W/m 3,2 km/h (1 Bft) 97,87 %
25.06.2022 03:50 16,9 C 16,1 C 13,3 C 92 % 1010,4 hPa 0,0 l/m 0 min 0 min 0 W/m 3,2 km/h (1 Bft) 97,87 %
25.06.2022 03:52 16,9 C 16,1 C 12,8 C 92 % 1010,4 hPa 0,0 l/m 0 min 0 min 0 W/m 3,2 km/h (1 Bft) 97,87 %
25.06.2022 03:54 16,9 C 15,6 C 12,8 C 92 % 1010,4 hPa 0,0 l/m 0 min 0 min 0 W/m 3,2 km/h (1 Bft) 95,65 %
25.06.2022 03:56 16,9 C 15,6 C 12,8 C 92 % 1010,5 hPa 0,0 l/m 0 min 0 min 0 W/m 3,2 km/h (1 Bft) 97,87 %
25.06.2022 03:58 16,9 C 15,6 C 12,8 C 92 % 1010,5 hPa 0,0 l/m 0 min 0 min 0 W/m 3,2 km/h (1 Bft) 97,87 %
25.06.2022 04:00 16,8 C 15,6 C 12,8 C 92 % 1010,5 hPa 0,0 l/m 0 min 0 min 0 W/m 3,2 km/h (1 Bft) 97,87 %
25.06.2022 04:02 16,8 C 15,6 C 12,8 C 92 % 1010,5 hPa 0,0 l/m 0 min 0 min 0 W/m 3,2 km/h (1 Bft) 95,74 %
25.06.2022 04:04 16,8 C 15,6 C 12,8 C 92 % 1010,5 hPa 0,0 l/m 0 min 0 min 0 W/m 3,2 km/h (1 Bft) 95,74 %
25.06.2022 04:06 16,8 C 15,6 C 12,8 C 92 % 1010,6 hPa 0,0 l/m 0 min 0 min 0 W/m 6,4 km/h (2 Bft) 95,65 %
25.06.2022 04:08 16,8 C 15,6 C 12,8 C 92 % 1010,5 hPa 0,0 l/m 0 min 0 min 0 W/m 3,2 km/h (1 Bft) 95,74 %
25.06.2022 04:10 16,8 C 15,6 C 12,8 C 92 % 1010,6 hPa 0,0 l/m 0 min 0 min 0 W/m 0,0 km/h (0 Bft) 93,62 %
25.06.2022 04:12 16,8 C 15,6 C 12,8 C 92 % 1010,5 hPa 0,0 l/m 0 min 0 min 0 W/m 6,4 km/h (2 Bft) 95,74 %
25.06.2022 04:14 16,7 C 15,6 C 12,8 C 92 % 1010,5 hPa 0,0 l/m 0 min 0 min 0 W/m 6,4 km/h (2 Bft) 93,62 %
25.06.2022 04:16 16,7 C 15,6 C 12,8 C 92 % 1010,6 hPa 0,0 l/m 0 min 0 min 0 W/m 6,4 km/h (2 Bft) 97,87 %
25.06.2022 04:18 16,7 C 15,6 C 12,8 C 92 % 1010,6 hPa 0,0 l/m 0 min 0 min 0 W/m 3,2 km/h (1 Bft) 97,83 %
25.06.2022 04:20 16,7 C 15,6 C 12,8 C 92 % 1010,7 hPa 0,0 l/m 0 min 0 min 0 W/m 6,4 km/h (2 Bft) 97,87 %
25.06.2022 04:22 16,7 C 15,6 C 12,8 C 92 % 1010,7 hPa 0,0 l/m 0 min 0 min 0 W/m 6,4 km/h (2 Bft) 97,87 %
25.06.2022 04:24 16,6 C 15,6 C 12,8 C 92 % 1010,7 hPa 0,0 l/m 0 min 0 min 0 W/m 0,0 km/h (0 Bft) 97,87 %
25.06.2022 04:26 16,6 C 15,6 C 12,8 C 92 % 1010,7 hPa 0,0 l/m 0 min 0 min 0 W/m 3,2 km/h (1 Bft) 95,74 %
25.06.2022 04:28 16,6 C 15,6 C 12,8 C 92 % 1010,8 hPa 0,0 l/m 0 min 0 min 0 W/m 6,4 km/h (2 Bft) 97,87 %
25.06.2022 04:30 16,6 C 15,6 C 12,8 C 92 % 1010,7 hPa 0,0 l/m 0 min 0 min 0 W/m 6,4 km/h (2 Bft) 97,83 %
25.06.2022 04:32 16,6 C 15,6 C 12,8 C 92 % 1010,8 hPa 0,0 l/m 0 min 0 min 0 W/m 6,4 km/h (2 Bft) 95,74 %
25.06.2022 04:34 16,5 C 15,6 C 12,8 C 92 % 1010,8 hPa 0,0 l/m 0 min 0 min 0 W/m 6,4 km/h (2 Bft) 97,87 %
25.06.2022 04:36 16,4 C 15,6 C 12,8 C 92 % 1010,8 hPa 0,0 l/m 0 min 0 min 0 W/m 6,4 km/h (2 Bft) 96,61 %
25.06.2022 04:38 16,4 C 15,6 C 12,8 C 92 % 1010,8 hPa 0,0 l/m 0 min 0 min 0 W/m 12,9 km/h (3 Bft) 97,14 %
25.06.2022 04:40 16,4 C 15,6 C 12,8 C 92 % 1010,9 hPa 0,0 l/m 0 min 0 min 0 W/m 3,2 km/h (1 Bft) 95,74 %
25.06.2022 04:42 16,4 C 15,6 C 12,8 C 93 % 1010,9 hPa 0,0 l/m 0 min 0 min 0 W/m 6,4 km/h (2 Bft) 97,83 %
25.06.2022 04:44 16,4 C 15,6 C 12,8 C 93 % 1010,8 hPa 0,0 l/m 0 min 0 min 0 W/m 6,4 km/h (2 Bft) 97,87 %
25.06.2022 04:46 16,3 C 15,0 C 12,8 C 93 % 1010,9 hPa 0,0 l/m 0 min 0 min 0 W/m 6,4 km/h (2 Bft) 95,74 %
25.06.2022 04:48 16,3 C 15,0 C 12,8 C 93 % 1010,9 hPa 0,0 l/m 0 min 0 min 0 W/m 6,4 km/h (2 Bft) 97,87 %
25.06.2022 04:50 16,3 C 15,0 C 12,8 C 93 % 1010,9 hPa 0,0 l/m 0 min 0 min 0 W/m 6,4 km/h (2 Bft) 93,62 %
25.06.2022 04:52 16,3 C 15,0 C 12,8 C 93 % 1010,9 hPa 0,0 l/m 0 min 0 min 0 W/m 6,4 km/h (2 Bft) 97,87 %
25.06.2022 04:54 16,3 C 15,0 C 12,8 C 93 % 1010,9 hPa 0,0 l/m 0 min 0 min 0 W/m 3,2 km/h (1 Bft) 100,00 %
25.06.2022 04:56 16,2 C 15,0 C 12,8 C 93 % 1011,0 hPa 0,0 l/m 0 min 0 min 0 W/m 3,2 km/h (1 Bft) 100,00 %
25.06.2022 04:58 16,2 C 15,0 C 12,8 C 93 % 1011,0 hPa 0,0 l/m 0 min 0 min 0 W/m 3,2 km/h (1 Bft) 97,87 %
25.06.2022 05:00 16,2 C 15,0 C 12,8 C 93 % 1011,0 hPa 0,0 l/m 0 min 0 min 0 W/m 3,2 km/h (1 Bft) 93,62 %
25.06.2022 05:02 16,2 C 15,0 C 12,2 C 93 % 1011,0 hPa 0,0 l/m 0 min 0 min 0 W/m 3,2 km/h (1 Bft) 97,87 %
25.06.2022 05:04 16,2 C 15,0 C 12,2 C 93 % 1011,0 hPa 0,0 l/m 0 min 0 min 0 W/m 3,2 km/h (1 Bft) 97,87 %
25.06.2022 05:06 16,2 C 15,0 C 12,2 C 93 % 1011,0 hPa 0,0 l/m 0 min 0 min 0 W/m 3,2 km/h (1 Bft) 97,83 %
25.06.2022 05:08 16,2 C 15,6 C 12,8 C 93 % 1011,0 hPa 0,0 l/m 0 min 0 min 0 W/m 3,2 km/h (1 Bft) 96,30 %
25.06.2022 05:10 16,2 C 15,6 C 12,8 C 93 % 1011,0 hPa 0,0 l/m 0 min 0 min 0 W/m 3,2 km/h (1 Bft) 97,87 %
25.06.2022 05:12 16,1 C 15,6 C 12,8 C 93 % 1011,1 hPa 0,0 l/m 0 min 0 min 0 W/m 3,2 km/h (1 Bft) 97,87 %
25.06.2022 05:14 16,1 C 15,6 C 12,8 C 93 % 1011,1 hPa 0,0 l/m 0 min 0 min 0 W/m 3,2 km/h (1 Bft) 97,87 %
25.06.2022 05:16 16,1 C 15,0 C 12,8 C 93 % 1011,1 hPa 0,0 l/m 0 min 0 min 0 W/m 6,4 km/h (2 Bft) 97,83 %
25.06.2022 05:18 16,1 C 15,0 C 12,8 C 93 % 1011,2 hPa 0,0 l/m 0 min 0 min 0 W/m 3,2 km/h (1 Bft) 97,87 %
25.06.2022 05:20 16,1 C 15,0 C 12,2 C 93 % 1011,1 hPa 0,0 l/m 0 min 0 min 0 W/m 6,4 km/h (2 Bft) 97,87 %
25.06.2022 05:22 16,1 C 15,0 C 12,2 C 94 % 1011,1 hPa 0,0 l/m 0 min 0 min 0 W/m 3,2 km/h (1 Bft) 97,87 %
25.06.2022 05:24 16,1 C 15,0 C 12,2 C 94 % 1011,1 hPa 0,0 l/m 0 min 0 min 0 W/m 3,2 km/h (1 Bft) 97,87 %
25.06.2022 05:26 16,1 C 15,0 C 12,2 C 94 % 1011,1 hPa 0,0 l/m 0 min 0 min 1 W/m 3,2 km/h (1 Bft) 95,74 %
25.06.2022 05:28 16,1 C 15,0 C 12,2 C 94 % 1011,1 hPa 0,0 l/m 0 min 0 min 5 W/m 6,4 km/h (2 Bft) 95,65 %
25.06.2022 05:30 16,1 C 15,0 C 12,2 C 94 % 1011,1 hPa 0,0 l/m 0 min 0 min 5 W/m 6,4 km/h (2 Bft) 97,87 %
25.06.2022 05:32 16,1 C 15,0 C 12,2 C 94 % 1011,2 hPa 0,0 l/m 0 min 0 min 6 W/m 6,4 km/h (2 Bft) 95,74 %
25.06.2022 05:34 16,1 C 15,0 C 12,2 C 94 % 1011,3 hPa 0,0 l/m 0 min 0 min 7 W/m 6,4 km/h (2 Bft) 95,74 %
25.06.2022 05:36 16,1 C 15,0 C 12,2 C 94 % 1011,3 hPa 0,0 l/m 0 min 0 min 7 W/m 6,4 km/h (2 Bft) 95,74 %
25.06.2022 05:38 16,1 C 15,0 C 12,2 C 94 % 1011,2 hPa 0,0 l/m 0 min 0 min 7 W/m 6,4 km/h (2 Bft) 95,74 %
25.06.2022 05:40 16,1 C 15,0 C 12,2 C 94 % 1011,2 hPa 0,0 l/m 0 min 0 min 9 W/m 3,2 km/h (1 Bft) 97,83 %
25.06.2022 05:42 16,0 C 15,0 C 12,2 C 94 % 1011,2 hPa 0,0 l/m 0 min 0 min 9 W/m 6,4 km/h (2 Bft) 97,87 %
25.06.2022 05:44 16,0 C 15,0 C 12,2 C 94 % 1011,3 hPa 0,0 l/m 0 min 0 min 9 W/m 6,4 km/h (2 Bft) 97,87 %
25.06.2022 05:46 16,0 C 15,0 C 12,2 C 94 % 1011,3 hPa 0,0 l/m 0 min 0 min 11 W/m 12,9 km/h (3 Bft) 97,87 %
25.06.2022 05:48 16,0 C 15,0 C 12,2 C 94 % 1011,3 hPa 0,0 l/m 0 min 0 min 11 W/m 6,4 km/h (2 Bft) 97,87 %
25.06.2022 05:50 15,9 C 15,0 C 12,2 C 94 % 1011,3 hPa 0,0 l/m 0 min 0 min 11 W/m 6,4 km/h (2 Bft) 97,87 %
25.06.2022 05:52 15,9 C 15,0 C 12,2 C 94 % 1011,3 hPa 0,0 l/m 0 min 0 min 12 W/m 3,2 km/h (1 Bft) 97,83 %
25.06.2022 05:54 15,9 C 15,0 C 12,2 C 94 % 1011,3 hPa 0,0 l/m 0 min 0 min 12 W/m 6,4 km/h (2 Bft) 95,74 %
25.06.2022 05:56 15,9 C 15,0 C 12,2 C 94 % 1011,4 hPa 0,0 l/m 0 min 0 min 12 W/m 6,4 km/h (2 Bft) 96,00 %
25.06.2022 05:58 15,9 C 15,0 C 12,2 C 94 % 1011,3 hPa 0,0 l/m 0 min 0 min 14 W/m 3,2 km/h (1 Bft) 95,74 %
25.06.2022 06:00 15,9 C 15,0 C 12,2 C 94 % 1011,3 hPa 0,0 l/m 0 min 0 min 14 W/m 6,4 km/h (2 Bft) 97,87 %
25.06.2022 06:02 15,9 C 15,0 C 12,2 C 94 % 1011,4 hPa 0,0 l/m 0 min 0 min 13 W/m 3,2 km/h (1 Bft) 97,83 %
25.06.2022 06:04 15,9 C 15,0 C 12,2 C 94 % 1011,3 hPa 0,0 l/m 0 min 0 min 15 W/m 3,2 km/h (1 Bft) 97,87 %
25.06.2022 06:07 15,9 C 15,0 C 12,2 C 94 % 1011,4 hPa 0,0 l/m 0 min 0 min 16 W/m 6,4 km/h (2 Bft) 98,63 %
25.06.2022 06:08 15,9 C 15,0 C 12,2 C 94 % 1011,4 hPa 0,0 l/m 0 min 0 min 17 W/m 3,2 km/h (1 Bft) 100,00 %
25.06.2022 06:10 15,9 C 15,0 C 12,2 C 95 % 1011,4 hPa 0,0 l/m 0 min 0 min 18 W/m 3,2 km/h (1 Bft) 100,00 %
25.06.2022 06:12 15,9 C 15,0 C 12,2 C 95 % 1011,4 hPa 0,0 l/m 0 min 0 min 18 W/m 12,9 km/h (3 Bft) 100,00 %
25.06.2022 06:14 15,9 C 15,0 C 12,8 C 95 % 1011,4 hPa 0,0 l/m 0 min 0 min 19 W/m 6,4 km/h (2 Bft) 100,00 %
25.06.2022 06:16 15,9 C 15,0 C 12,8 C 95 % 1011,4 hPa 0,0 l/m 0 min 0 min 19 W/m 3,2 km/h (1 Bft) 97,87 %
25.06.2022 06:18 15,9 C 15,0 C 12,8 C 95 % 1011,4 hPa 0,0 l/m 0 min 0 min 21 W/m 6,4 km/h (2 Bft) 97,87 %
25.06.2022 06:20 16,0 C 15,6 C 12,8 C 95 % 1011,4 hPa 0,0 l/m 0 min 0 min 21 W/m 3,2 km/h (1 Bft) 100,00 %
25.06.2022 06:22 16,0 C 15,6 C 12,8 C 95 % 1011,4 hPa 0,0 l/m 0 min 0 min 22 W/m 6,4 km/h (2 Bft) 100,00 %
25.06.2022 06:24 16,0 C 15,6 C 12,8 C 95 % 1011,5 hPa 0,0 l/m 0 min 0 min 23 W/m 6,4 km/h (2 Bft) 100,00 %
25.06.2022 06:26 16,0 C 15,6 C 12,8 C 95 % 1011,5 hPa 0,0 l/m 0 min 0 min 23 W/m 6,4 km/h (2 Bft) 100,00 %
25.06.2022 06:28 16,1 C 15,6 C 12,8 C 95 % 1011,4 hPa 0,0 l/m 0 min 0 min 25 W/m 6,4 km/h (2 Bft) 100,00 %
25.06.2022 06:30 16,1 C 15,6 C 12,8 C 95 % 1011,4 hPa 0,0 l/m 0 min 0 min 26 W/m 6,4 km/h (2 Bft) 100,00 %
25.06.2022 06:32 16,1 C 15,6 C 12,8 C 95 % 1011,4 hPa 0,0 l/m 0 min 0 min 26 W/m 6,4 km/h (2 Bft) 97,87 %
25.06.2022 06:34 16,1 C 15,6 C 12,8 C 95 % 1011,5 hPa 0,0 l/m 0 min 0 min 27 W/m 12,9 km/h (3 Bft) 100,00 %
25.06.2022 06:36 16,1 C 15,6 C 12,8 C 95 % 1011,5 hPa 0,0 l/m 0 min 0 min 28 W/m 6,4 km/h (2 Bft) 100,00 %
25.06.2022 06:38 16,1 C 15,6 C 12,8 C 95 % 1011,5 hPa 0,0 l/m 0 min 0 min 28 W/m 6,4 km/h (2 Bft) 100,00 %
25.06.2022 06:40 16,2 C 15,6 C 12,8 C 95 % 1011,5 hPa 0,0 l/m 0 min 0 min 28 W/m 3,2 km/h (1 Bft) 100,00 %
25.06.2022 06:42 16,2 C 15,6 C 12,8 C 95 % 1011,5 hPa 0,0 l/m 0 min 0 min 30 W/m 3,2 km/h (1 Bft) 100,00 %
25.06.2022 06:44 16,2 C 15,6 C 12,8 C 95 % 1011,5 hPa 0,0 l/m 0 min 0 min 30 W/m 6,4 km/h (2 Bft) 100,00 %
25.06.2022 06:46 16,2 C 15,6 C 12,8 C 95 % 1011,5 hPa 0,0 l/m 0 min 0 min 31 W/m 6,4 km/h (2 Bft) 100,00 %
25.06.2022 06:48 16,2 C 16,1 C 12,8 C 95 % 1011,5 hPa 0,0 l/m 0 min 0 min 32 W/m 6,4 km/h (2 Bft) 100,00 %
25.06.2022 06:50 16,3 C 16,1 C 12,8 C 95 % 1011,5 hPa 0,0 l/m 0 min 0 min 32 W/m 3,2 km/h (1 Bft) 100,00 %
25.06.2022 06:52 16,3 C 16,1 C 12,8 C 95 % 1011,5 hPa 0,0 l/m 0 min 0 min 32 W/m 3,2 km/h (1 Bft) 97,87 %
25.06.2022 06:54 16,3 C 16,1 C 13,3 C 95 % 1011,5 hPa 0,0 l/m 0 min 0 min 31 W/m 3,2 km/h (1 Bft) 100,00 %
25.06.2022 06:56 16,4 C 16,1 C 13,3 C 95 % 1011,5 hPa 0,0 l/m 0 min 0 min 30 W/m 3,2 km/h (1 Bft) 100,00 %
25.06.2022 06:58 16,4 C 16,1 C 13,3 C 95 % 1011,5 hPa 0,0 l/m 0 min 0 min 30 W/m 3,2 km/h (1 Bft) 100,00 %
25.06.2022 07:00 16,4 C 16,1 C 13,3 C 95 % 1011,5 hPa 0,0 l/m 0 min 0 min 33 W/m 3,2 km/h (1 Bft) 100,00 %
25.06.2022 07:02 16,4 C 16,1 C 13,3 C 95 % 1011,6 hPa 0,0 l/m 0 min 0 min 34 W/m 3,2 km/h (1 Bft) 100,00 %
25.06.2022 07:04 16,5 C 16,1 C 13,3 C 95 % 1011,6 hPa 0,0 l/m 0 min 0 min 35 W/m 3,2 km/h (1 Bft) 95,74 %
25.06.2022 07:06 16,5 C 16,7 C 13,3 C 95 % 1011,6 hPa 0,0 l/m 0 min 0 min 36 W/m 3,2 km/h (1 Bft) 97,87 %
25.06.2022 07:08 16,6 C 16,7 C 13,3 C 96 % 1011,6 hPa 0,0 l/m 0 min 0 min 37 W/m 6,4 km/h (2 Bft) 97,87 %
25.06.2022 07:10 16,6 C 16,7 C 13,3 C 96 % 1011,6 hPa 0,0 l/m 0 min 0 min 39 W/m 6,4 km/h (2 Bft) 97,87 %
25.06.2022 07:12 16,6 C 16,7 C 13,3 C 96 % 1011,6 hPa 0,0 l/m 0 min 0 min 40 W/m 12,9 km/h (3 Bft) 95,65 %
25.06.2022 07:14 16,7 C 16,7 C 13,3 C 96 % 1011,6 hPa 0,0 l/m 0 min 0 min 44 W/m 9,7 km/h (2 Bft) 97,87 %
25.06.2022 07:16 16,7 C 16,7 C 13,3 C 96 % 1011,7 hPa 0,0 l/m 0 min 0 min 46 W/m 6,4 km/h (2 Bft) 93,62 %
25.06.2022 07:18 16,8 C 16,7 C 13,9 C 95 % 1011,8 hPa 0,0 l/m 0 min 0 min 44 W/m 9,7 km/h (2 Bft) 97,87 %
25.06.2022 07:20 16,8 C 16,7 C 13,9 C 95 % 1011,7 hPa 0,0 l/m 0 min 0 min 45 W/m 6,4 km/h (2 Bft) 95,74 %
25.06.2022 07:22 16,9 C 17,2 C 13,9 C 95 % 1011,7 hPa 0,0 l/m 0 min 0 min 45 W/m 6,4 km/h (2 Bft) 95,74 %
25.06.2022 07:24 16,9 C 17,2 C 13,9 C 95 % 1011,7 hPa 0,0 l/m 0 min 0 min 42 W/m 9,7 km/h (2 Bft) 97,83 %
25.06.2022 07:26 17,0 C 17,2 C 13,9 C 95 % 1011,8 hPa 0,0 l/m 0 min 0 min 42 W/m 9,7 km/h (2 Bft) 89,36 %
25.06.2022 07:28 17,1 C 17,2 C 13,9 C 95 % 1011,7 hPa 0,0 l/m 0 min 0 min 44 W/m 3,2 km/h (1 Bft) 95,74 %
25.06.2022 07:30 17,1 C 17,2 C 13,9 C 95 % 1011,8 hPa 0,0 l/m 0 min 0 min 47 W/m 6,4 km/h (2 Bft) 95,74 %
25.06.2022 07:32 17,2 C 17,2 C 13,9 C 95 % 1011,8 hPa 0,0 l/m 0 min 0 min 48 W/m 9,7 km/h (2 Bft) 95,74 %
25.06.2022 07:34 17,2 C 17,2 C 14,4 C 95 % 1011,8 hPa 0,0 l/m 0 min 0 min 50 W/m 6,4 km/h (2 Bft) 93,62 %
25.06.2022 07:36 17,3 C 17,2 C 14,4 C 95 % 1011,8 hPa 0,0 l/m 0 min 0 min 52 W/m 6,4 km/h (2 Bft) 93,48 %
25.06.2022 07:38 17,3 C 17,8 C 14,4 C 94 % 1011,8 hPa 0,0 l/m 0 min 0 min 59 W/m 3,2 km/h (1 Bft) 91,49 %
25.06.2022 07:40 17,4 C 17,8 C 14,4 C 94 % 1011,8 hPa 0,0 l/m 0 min 0 min 144 W/m 9,7 km/h (2 Bft) 93,62 %
25.06.2022 07:42 17,4 C 17,8 C 14,4 C 94 % 1011,9 hPa 0,0 l/m 2 min 0 min 237 W/m 12,9 km/h (3 Bft) 93,62 %
25.06.2022 07:44 17,5 C 17,8 C 14,4 C 94 % 1011,9 hPa 0,0 l/m 2 min 0 min 272 W/m 3,2 km/h (1 Bft) 97,14 %
25.06.2022 07:46 17,6 C 17,8 C 14,4 C 94 % 1011,8 hPa 0,0 l/m 2 min 0 min 281 W/m 6,4 km/h (2 Bft) 89,09 %
25.06.2022 07:48 17,7 C 18,3 C 14,4 C 93 % 1011,8 hPa 0,0 l/m 2 min 0 min 291 W/m 9,7 km/h (2 Bft) 94,00 %
25.06.2022 07:50 17,8 C 18,3 C 15,0 C 93 % 1011,9 hPa 0,0 l/m 2 min 0 min 297 W/m 6,4 km/h (2 Bft) 93,48 %
25.06.2022 07:52 17,8 C 18,3 C 15,0 C 93 % 1011,9 hPa 0,0 l/m 2 min 0 min 304 W/m 9,7 km/h (2 Bft) 95,74 %
25.06.2022 07:54 17,9 C 18,3 C 15,0 C 93 % 1012,0 hPa 0,0 l/m 2 min 0 min 307 W/m 6,4 km/h (2 Bft) 93,62 %
25.06.2022 07:56 18,1 C 18,3 C 15,0 C 92 % 1012,0 hPa 0,0 l/m 2 min 0 min 309 W/m 3,2 km/h (1 Bft) 93,62 %
25.06.2022 07:58 18,2 C 18,9 C 15,0 C 92 % 1011,9 hPa 0,0 l/m 2 min 0 min 315 W/m 3,2 km/h (1 Bft) 95,74 %
25.06.2022 08:00 18,3 C 18,9 C 15,0 C 92 % 1011,9 hPa 0,0 l/m 2 min 0 min 317 W/m 6,4 km/h (2 Bft) 97,87 %
25.06.2022 08:02 18,3 C 18,9 C 15,0 C 91 % 1011,9 hPa 0,0 l/m 2 min 0 min 319 W/m 12,9 km/h (3 Bft) 97,83 %
25.06.2022 08:04 18,4 C 18,9 C 15,0 C 91 % 1012,0 hPa 0,0 l/m 2 min 0 min 334 W/m 12,9 km/h (3 Bft) 97,87 %
25.06.2022 08:06 18,6 C 18,9 C 15,0 C 90 % 1012,0 hPa 0,0 l/m 2 min 0 min 339 W/m 12,9 km/h (3 Bft) 97,87 %
25.06.2022 08:08 18,7 C 18,9 C 15,6 C 89 % 1012,0 hPa 0,0 l/m 2 min 0 min 344 W/m 12,9 km/h (3 Bft) 97,87 %
25.06.2022 08:10 18,8 C 19,4 C 15,6 C 89 % 1012,0 hPa 0,0 l/m 2 min 0 min 336 W/m 12,9 km/h (3 Bft) 95,74 %
25.06.2022 08:12 18,9 C 20,0 C 15,6 C 88 % 1012,1 hPa 0,0 l/m 2 min 0 min 337 W/m 9,7 km/h (2 Bft) 97,87 %
25.06.2022 08:14 19,1 C 20,0 C 15,6 C 87 % 1012,1 hPa 0,0 l/m 2 min 0 min 354 W/m 16,1 km/h (3 Bft) 97,83 %
25.06.2022 08:16 19,2 C 20,6 C 15,6 C 87 % 1012,1 hPa 0,0 l/m 2 min 0 min 361 W/m 9,7 km/h (2 Bft) 97,87 %
25.06.2022 08:18 19,4 C 21,1 C 15,6 C 86 % 1012,1 hPa 0,0 l/m 2 min 0 min 362 W/m 12,9 km/h (3 Bft) 97,87 %
25.06.2022 08:20 19,5 C 21,7 C 16,1 C 85 % 1012,1 hPa 0,0 l/m 2 min 0 min 372 W/m 12,9 km/h (3 Bft) 97,87 %
25.06.2022 08:22 19,6 C 21,7 C 16,1 C 85 % 1012,1 hPa 0,0 l/m 2 min 0 min 379 W/m 16,1 km/h (3 Bft) 97,87 %
25.06.2022 08:24 19,7 C 21,7 C 16,7 C 84 % 1012,1 hPa 0,0 l/m 2 min 0 min 385 W/m 16,1 km/h (3 Bft) 97,87 %
25.06.2022 08:26 19,8 C 22,2 C 17,2 C 83 % 1012,1 hPa 0,0 l/m 2 min 0 min 392 W/m 9,7 km/h (2 Bft) 97,83 %
25.06.2022 08:28 19,9 C 22,2 C 17,2 C 83 % 1012,2 hPa 0,0 l/m 2 min 0 min 393 W/m 12,9 km/h (3 Bft) 97,87 %
25.06.2022 08:30 20,1 C 22,2 C 17,8 C 82 % 1012,2 hPa 0,0 l/m 2 min 0 min 376 W/m 12,9 km/h (3 Bft) 97,87 %
25.06.2022 08:32 20,2 C 22,2 C 17,8 C 81 % 1012,2 hPa 0,0 l/m 2 min 0 min 378 W/m 6,4 km/h (2 Bft) 97,87 %
25.06.2022 08:34 20,3 C 22,2 C 17,8 C 81 % 1012,2 hPa 0,0 l/m 2 min 0 min 311 W/m 12,9 km/h (3 Bft) 97,87 %
25.06.2022 08:36 20,3 C 22,2 C 17,8 C 80 % 1012,2 hPa 0,0 l/m 2 min 0 min 363 W/m 16,1 km/h (3 Bft) 100,00 %
25.06.2022 08:38 20,4 C 22,2 C 18,3 C 80 % 1012,2 hPa 0,0 l/m 2 min 0 min 344 W/m 16,1 km/h (3 Bft) 100,00 %
25.06.2022 08:40 20,5 C 22,8 C 18,3 C 79 % 1012,2 hPa 0,0 l/m 2 min 0 min 394 W/m 6,4 km/h (2 Bft) 100,00 %
25.06.2022 08:42 20,6 C 23,3 C 18,3 C 79 % 1012,2 hPa 0,0 l/m 2 min 0 min 417 W/m 12,9 km/h (3 Bft) 100,00 %
25.06.2022 08:44 20,7 C 23,9 C 18,9 C 79 % 1012,2 hPa 0,0 l/m 2 min 0 min 440 W/m 22,5 km/h (4 Bft) 100,00 %
25.06.2022 08:46 20,8 C 23,9 C 18,9 C 78 % 1012,2 hPa 0,0 l/m 2 min 0 min 445 W/m 22,5 km/h (4 Bft) 100,00 %
25.06.2022 08:48 20,8 C 23,9 C 18,9 C 77 % 1012,2 hPa 0,0 l/m 2 min 0 min 452 W/m 19,3 km/h (3 Bft) 100,00 %
25.06.2022 08:50 20,8 C 23,9 C 19,4 C 77 % 1012,2 hPa 0,0 l/m 2 min 0 min 460 W/m 25,7 km/h (4 Bft) 100,00 %
25.06.2022 08:52 20,8 C 23,3 C 19,4 C 76 % 1012,2 hPa 0,0 l/m 2 min 0 min 465 W/m 19,3 km/h (3 Bft) 100,00 %
25.06.2022 08:54 20,8 C 23,9 C 19,4 C 77 % 1012,2 hPa 0,0 l/m 2 min 0 min 469 W/m 19,3 km/h (3 Bft) 100,00 %
25.06.2022 08:56 20,9 C 24,4 C 20,0 C 76 % 1012,2 hPa 0,0 l/m 2 min 0 min 440 W/m 12,9 km/h (3 Bft) 100,00 %
25.06.2022 08:58 21,0 C 25,0 C 20,0 C 76 % 1012,3 hPa 0,0 l/m 2 min 0 min 463 W/m 9,7 km/h (2 Bft) 100,00 %
25.06.2022 09:00 21,1 C 25,0 C 20,0 C 76 % 1012,3 hPa 0,0 l/m 2 min 0 min 486 W/m 22,5 km/h (4 Bft) 100,00 %
25.06.2022 09:02 21,2 C 25,0 C 20,0 C 76 % 1012,3 hPa 0,0 l/m 2 min 0 min 493 W/m 19,3 km/h (3 Bft) 100,00 %
25.06.2022 09:04 21,3 C 25,6 C 20,0 C 76 % 1012,3 hPa 0,0 l/m 2 min 0 min 500 W/m 19,3 km/h (3 Bft) 97,87 %
25.06.2022 09:06 21,4 C 26,1 C 20,6 C 75 % 1012,4 hPa 0,0 l/m 2 min 0 min 503 W/m 19,3 km/h (3 Bft) 100,00 %
25.06.2022 09:08 21,4 C 26,1 C 20,6 C 75 % 1012,3 hPa 0,0 l/m 2 min 0 min 497 W/m 9,7 km/h (2 Bft) 100,00 %
25.06.2022 09:10 21,6 C 26,7 C 20,6 C 75 % 1012,3 hPa 0,0 l/m 2 min 0 min 477 W/m 16,1 km/h (3 Bft) 100,00 %
25.06.2022 09:12 21,6 C 26,7 C 20,6 C 75 % 1012,3 hPa 0,0 l/m 2 min 0 min 448 W/m 6,4 km/h (2 Bft) 100,00 %
25.06.2022 09:14 21,7 C 27,2 C 21,1 C 75 % 1012,3 hPa 0,0 l/m 2 min 0 min 525 W/m 16,1 km/h (3 Bft) 100,00 %
25.06.2022 09:16 21,8 C 27,2 C 21,1 C 74 % 1012,3 hPa 0,0 l/m 2 min 0 min 530 W/m 12,9 km/h (3 Bft) 100,00 %
25.06.2022 09:18 21,8 C 26,7 C 21,1 C 74 % 1012,4 hPa 0,0 l/m 2 min 0 min 538 W/m 19,3 km/h (3 Bft) 100,00 %
25.06.2022 09:20 21,9 C 26,7 C 21,1 C 74 % 1012,3 hPa 0,0 l/m 2 min 0 min 540 W/m 16,1 km/h (3 Bft) 100,00 %
25.06.2022 09:22 22,0 C 27,8 C 21,1 C 74 % 1012,4 hPa 0,0 l/m 2 min 0 min 543 W/m 19,3 km/h (3 Bft) 97,87 %
25.06.2022 09:24 22,1 C 28,3 C 21,7 C 74 % 1012,3 hPa 0,0 l/m 2 min 0 min 548 W/m 16,1 km/h (3 Bft) 97,87 %
25.06.2022 09:26 22,1 C 28,3 C 21,7 C 73 % 1012,3 hPa 0,0 l/m 2 min 0 min 557 W/m 9,7 km/h (2 Bft) 100,00 %
25.06.2022 09:28 22,2 C 27,8 C 21,7 C 73 % 1012,3 hPa 0,0 l/m 2 min 0 min 563 W/m 19,3 km/h (3 Bft) 100,00 %
25.06.2022 09:30 22,2 C 27,8 C 21,7 C 73 % 1012,3 hPa 0,0 l/m 2 min 0 min 568 W/m 19,3 km/h (3 Bft) 100,00 %
25.06.2022 09:32 22,3 C 28,9 C 22,2 C 73 % 1012,3 hPa 0,0 l/m 2 min 0 min 572 W/m 12,9 km/h (3 Bft) 97,87 %
25.06.2022 09:34 22,3 C 28,3 C 22,2 C 72 % 1012,3 hPa 0,0 l/m 2 min 0 min 573 W/m 16,1 km/h (3 Bft) 97,87 %
25.06.2022 09:36 22,4 C 28,9 C 22,8 C 72 % 1012,3 hPa 0,0 l/m 2 min 0 min 579 W/m 12,9 km/h (3 Bft) 95,65 %
25.06.2022 09:38 22,4 C 28,3 C 22,8 C 72 % 1012,3 hPa 0,0 l/m 2 min 0 min 586 W/m 12,9 km/h (3 Bft) 93,62 %
25.06.2022 09:40 22,5 C 28,3 C 22,8 C 71 % 1012,3 hPa 0,0 l/m 2 min 0 min 586 W/m 25,7 km/h (4 Bft) 93,62 %
25.06.2022 09:42 22,6 C 28,3 C 22,8 C 72 % 1012,3 hPa 0,0 l/m 2 min 0 min 603 W/m 12,9 km/h (3 Bft) 95,74 %
25.06.2022 09:44 22,6 C 28,3 C 22,8 C 71 % 1012,3 hPa 0,0 l/m 2 min 0 min 596 W/m 12,9 km/h (3 Bft) 95,74 %
25.06.2022 09:46 22,6 C 28,3 C 23,3 C 71 % 1012,3 hPa 0,0 l/m 2 min 0 min 606 W/m 19,3 km/h (3 Bft) 95,74 %
25.06.2022 09:48 22,6 C 27,8 C 23,3 C 71 % 1012,3 hPa 0,0 l/m 2 min 0 min 625 W/m 12,9 km/h (3 Bft) 95,65 %
25.06.2022 09:50 22,6 C 27,8 C 23,3 C 71 % 1012,3 hPa 0,0 l/m 2 min 0 min 638 W/m 6,4 km/h (2 Bft) 95,74 %
25.06.2022 09:52 22,7 C 27,2 C 23,3 C 71 % 1012,3 hPa 0,0 l/m 2 min 0 min 646 W/m 12,9 km/h (3 Bft) 95,74 %
25.06.2022 09:54 22,7 C 26,7 C 23,3 C 70 % 1012,3 hPa 0,0 l/m 2 min 0 min 636 W/m 22,5 km/h (4 Bft) 93,62 %
25.06.2022 09:56 22,8 C 27,2 C 23,9 C 70 % 1012,3 hPa 0,0 l/m 2 min 0 min 639 W/m 12,9 km/h (3 Bft) 93,62 %
25.06.2022 09:58 22,8 C 27,2 C 23,9 C 69 % 1012,3 hPa 0,0 l/m 2 min 0 min 646 W/m 22,5 km/h (4 Bft) 95,74 %
25.06.2022 10:00 22,8 C 26,7 C 23,9 C 67 % 1012,3 hPa 0,0 l/m 2 min 0 min 653 W/m 19,3 km/h (3 Bft) 95,65 %
25.06.2022 10:02 22,8 C 26,7 C 23,9 C 68 % 1012,3 hPa 0,0 l/m 2 min 0 min 661 W/m 12,9 km/h (3 Bft) 95,74 %
25.06.2022 10:04 22,8 C 26,1 C 23,9 C 68 % 1012,3 hPa 0,0 l/m 2 min 0 min 662 W/m 29,0 km/h (5 Bft) 95,74 %
25.06.2022 10:06 22,8 C 26,1 C 23,9 C 68 % 1012,4 hPa 0,0 l/m 2 min 0 min 649 W/m 16,1 km/h (3 Bft) 97,87 %
25.06.2022 10:08 22,8 C 26,1 C 23,9 C 68 % 1012,3 hPa 0,0 l/m 2 min 0 min 687 W/m 19,3 km/h (3 Bft) 97,87 %
25.06.2022 10:10 22,9 C 26,7 C 24,4 C 68 % 1012,3 hPa 0,0 l/m 2 min 0 min 693 W/m 12,9 km/h (3 Bft) 97,87 %
25.06.2022 10:12 23,0 C 26,7 C 24,4 C 68 % 1012,3 hPa 0,0 l/m 2 min 0 min 631 W/m 16,1 km/h (3 Bft) 97,83 %
25.06.2022 10:14 23,1 C 26,7 C 24,4 C 68 % 1012,3 hPa 0,0 l/m 2 min 0 min 719 W/m 16,1 km/h (3 Bft) 95,74 %
25.06.2022 10:16 23,3 C 26,7 C 25,0 C 67 % 1012,3 hPa 0,0 l/m 2 min 0 min 733 W/m 29,0 km/h (5 Bft) 95,74 %
25.06.2022 10:18 23,4 C 26,7 C 24,4 C 67 % 1012,3 hPa 0,0 l/m 2 min 0 min 691 W/m 25,7 km/h (4 Bft) 100,00 %
25.06.2022 10:20 23,4 C 26,7 C 25,0 C 67 % 1012,3 hPa 0,0 l/m 2 min 0 min 716 W/m 22,5 km/h (4 Bft) 100,00 %
25.06.2022 10:22 23,6 C 26,1 C 25,0 C 67 % 1012,3 hPa 0,0 l/m 2 min 0 min 775 W/m 22,5 km/h (4 Bft) 100,00 %
25.06.2022 10:24 23,6 C 26,1 C 25,0 C 67 % 1012,3 hPa 0,0 l/m 2 min 0 min 768 W/m 25,7 km/h (4 Bft) 100,00 %
25.06.2022 10:26 23,6 C 26,1 C 25,0 C 67 % 1012,3 hPa 0,0 l/m 2 min 0 min 731 W/m 6,4 km/h (2 Bft) 100,00 %
25.06.2022 10:28 23,7 C 25,6 C 25,0 C 67 % 1012,3 hPa 0,0 l/m 2 min 0 min 684 W/m 19,3 km/h (3 Bft) 100,00 %
25.06.2022 10:30 23,7 C 25,6 C 25,0 C 67 % 1012,3 hPa 0,0 l/m 2 min 0 min 679 W/m 12,9 km/h (3 Bft) 100,00 %
25.06.2022 10:32 23,7 C 25,6 C 25,0 C 67 % 1012,3 hPa 0,0 l/m 2 min 0 min 707 W/m 16,1 km/h (3 Bft) 97,87 %
25.06.2022 10:34 23,8 C 25,6 C 25,0 C 68 % 1012,4 hPa 0,0 l/m 2 min 0 min 558 W/m 16,1 km/h (3 Bft) 100,00 %
25.06.2022 10:36 23,8 C 25,0 C 24,4 C 66 % 1012,4 hPa 0,0 l/m 2 min 0 min 493 W/m 22,5 km/h (4 Bft) 100,00 %
25.06.2022 10:38 23,8 C 24,4 C 23,9 C 66 % 1012,3 hPa 0,0 l/m 2 min 0 min 492 W/m 19,3 km/h (3 Bft) 100,00 %
25.06.2022 10:40 23,7 C 24,4 C 23,3 C 66 % 1012,4 hPa 0,0 l/m 2 min 0 min 444 W/m 22,5 km/h (4 Bft) 100,00 %
25.06.2022 10:42 23,6 C 24,4 C 23,9 C 66 % 1012,4 hPa 0,0 l/m 2 min 0 min 465 W/m 25,7 km/h (4 Bft) 100,00 %
25.06.2022 10:44 23,6 C 24,4 C 23,9 C 66 % 1012,4 hPa 0,0 l/m 2 min 0 min 647 W/m 16,1 km/h (3 Bft) 97,87 %
25.06.2022 10:46 23,5 C 24,4 C 23,9 C 67 % 1012,4 hPa 0,0 l/m 2 min 0 min 649 W/m 16,1 km/h (3 Bft) 100,00 %
25.06.2022 10:48 23,5 C 24,4 C 23,9 C 67 % 1012,4 hPa 0,0 l/m 2 min 0 min 611 W/m 16,1 km/h (3 Bft) 100,00 %
25.06.2022 10:50 23,6 C 24,4 C 23,9 C 67 % 1012,4 hPa 0,0 l/m 2 min 0 min 626 W/m 19,3 km/h (3 Bft) 100,00 %
25.06.2022 10:52 23,6 C 25,0 C 23,9 C 67 % 1012,4 hPa 0,0 l/m 2 min 0 min 684 W/m 12,9 km/h (3 Bft) 100,00 %
25.06.2022 10:54 23,7 C 25,6 C 24,4 C 67 % 1012,4 hPa 0,0 l/m 2 min 0 min 680 W/m 16,1 km/h (3 Bft) 100,00 %
25.06.2022 10:56 23,7 C 25,6 C 24,4 C 66 % 1012,4 hPa 0,0 l/m 2 min 0 min 667 W/m 25,7 km/h (4 Bft) 100,00 %
25.06.2022 10:58 23,7 C 26,1 C 24,4 C 66 % 1012,4 hPa 0,0 l/m 2 min 0 min 1000 W/m 16,1 km/h (3 Bft) 100,00 %
25.06.2022 11:00 23,8 C 26,7 C 23,9 C 66 % 1012,4 hPa 0,0 l/m 2 min 0 min 929 W/m 16,1 km/h (3 Bft) 100,00 %
25.06.2022 11:02 23,8 C 26,1 C 23,3 C 66 % 1012,3 hPa 0,0 l/m 2 min 0 min 662 W/m 22,5 km/h (4 Bft) 97,87 %
25.06.2022 11:04 23,8 C 25,0 C 22,2 C 66 % 1012,3 hPa 0,0 l/m 0 min 0 min 219 W/m 19,3 km/h (3 Bft) 100,00 %
25.06.2022 11:06 23,8 C 23,9 C 21,7 C 66 % 1012,3 hPa 0,0 l/m 0 min 0 min 223 W/m 22,5 km/h (4 Bft) 100,00 %
25.06.2022 11:08 23,7 C 23,9 C 21,7 C 66 % 1012,3 hPa 0,0 l/m 0 min 0 min 245 W/m 6,4 km/h (2 Bft) 97,87 %
25.06.2022 11:10 23,7 C 24,4 C 21,7 C 67 % 1012,3 hPa 0,0 l/m 0 min 0 min 254 W/m 16,1 km/h (3 Bft) 100,00 %
25.06.2022 11:12 23,7 C 23,9 C 21,1 C 66 % 1012,3 hPa 0,0 l/m 0 min 0 min 240 W/m 25,7 km/h (4 Bft) 100,00 %
25.06.2022 11:14 23,6 C 23,9 C 21,1 C 66 % 1012,3 hPa 0,0 l/m 0 min 0 min 204 W/m 12,9 km/h (3 Bft) 100,00 %
25.06.2022 11:16 23,6 C 23,3 C 21,1 C 67 % 1012,3 hPa 0,0 l/m 0 min 0 min 182 W/m 12,9 km/h (3 Bft) 97,87 %
25.06.2022 11:18 23,5 C 23,3 C 20,6 C 66 % 1012,3 hPa 0,0 l/m 0 min 0 min 172 W/m 6,4 km/h (2 Bft) 97,87 %
25.06.2022 11:20 23,4 C 23,9 C 20,6 C 66 % 1012,3 hPa 0,0 l/m 0 min 0 min 172 W/m 16,1 km/h (3 Bft) 100,00 %
25.06.2022 11:22 23,4 C 25,0 C 21,1 C 65 % 1012,2 hPa 0,0 l/m 2 min 0 min 558 W/m 19,3 km/h (3 Bft) 100,00 %
25.06.2022 11:24 23,6 C 25,6 C 21,7 C 66 % 1012,3 hPa 0,0 l/m 2 min 0 min 951 W/m 19,3 km/h (3 Bft) 100,00 %
25.06.2022 11:26 23,7 C 26,7 C 21,7 C 66 % 1012,3 hPa 0,0 l/m 2 min 0 min 943 W/m 16,1 km/h (3 Bft) 95,74 %
25.06.2022 11:28 23,8 C 26,7 C 22,8 C 65 % 1012,3 hPa 0,0 l/m 2 min 0 min 940 W/m 16,1 km/h (3 Bft) 95,74 %
25.06.2022 11:30 24,0 C 26,7 C 23,9 C 65 % 1012,3 hPa 0,0 l/m 2 min 0 min 945 W/m 22,5 km/h (4 Bft) 97,87 %
25.06.2022 11:32 24,2 C 27,2 C 24,4 C 64 % 1012,2 hPa 0,0 l/m 2 min 0 min 942 W/m 16,1 km/h (3 Bft) 95,74 %
25.06.2022 11:34 24,3 C 27,8 C 24,4 C 64 % 1012,2 hPa 0,0 l/m 2 min 0 min 942 W/m 12,9 km/h (3 Bft) 95,74 %
25.06.2022 11:36 24,5 C 27,8 C 23,9 C 63 % 1012,2 hPa 0,0 l/m 2 min 0 min 911 W/m 16,1 km/h (3 Bft) 95,65 %
25.06.2022 11:38 24,7 C 28,3 C 23,9 C 63 % 1012,2 hPa 0,0 l/m 2 min 0 min 896 W/m 6,4 km/h (2 Bft) 97,87 %
25.06.2022 11:40 24,8 C 28,3 C 23,9 C 63 % 1012,2 hPa 0,0 l/m 2 min 0 min 893 W/m 12,9 km/h (3 Bft) 95,74 %
25.06.2022 11:42 24,9 C 27,8 C 23,9 C 60 % 1012,3 hPa 0,0 l/m 2 min 0 min 917 W/m 29,0 km/h (5 Bft) 95,74 %
25.06.2022 11:44 24,9 C 27,8 C 25,0 C 61 % 1012,3 hPa 0,0 l/m 2 min 0 min 974 W/m 19,3 km/h (3 Bft) 93,62 %
25.06.2022 11:46 24,9 C 27,2 C 25,0 C 60 % 1012,2 hPa 0,0 l/m 2 min 0 min 951 W/m 22,5 km/h (4 Bft) 93,62 %
25.06.2022 11:48 25,0 C 27,2 C 25,0 C 60 % 1012,2 hPa 0,0 l/m 2 min 0 min 911 W/m 22,5 km/h (4 Bft) 95,65 %
25.06.2022 11:50 24,9 C 26,7 C 24,4 C 59 % 1012,2 hPa 0,0 l/m 2 min 0 min 1023 W/m 25,7 km/h (4 Bft) 95,74 %
25.06.2022 11:52 24,8 C 25,6 C 23,3 C 59 % 1012,2 hPa 0,0 l/m 2 min 0 min 879 W/m 35,4 km/h (5 Bft) 97,87 %
25.06.2022 11:54 24,7 C 25,6 C 22,8 C 60 % 1012,1 hPa 0,0 l/m 0 min 0 min 387 W/m 16,1 km/h (3 Bft) 95,74 %
25.06.2022 11:56 24,7 C 26,1 C 22,8 C 60 % 1012,2 hPa 0,0 l/m 2 min 0 min 809 W/m 25,7 km/h (4 Bft) 93,62 %
25.06.2022 11:58 24,7 C 26,1 C 22,8 C 60 % 1012,2 hPa 0,0 l/m 2 min 0 min 707 W/m 22,5 km/h (4 Bft) 91,49 %
25.06.2022 12:00 24,8 C 26,7 C 23,3 C 61 % 1012,1 hPa 0,0 l/m 2 min 0 min 857 W/m 16,1 km/h (3 Bft) 95,65 %
25.06.2022 12:02 24,8 C 26,7 C 23,3 C 60 % 1012,2 hPa 0,0 l/m 2 min 0 min 886 W/m 16,1 km/h (3 Bft) 95,74 %
25.06.2022 12:04 24,8 C 26,1 C 23,3 C 59 % 1012,1 hPa 0,0 l/m 2 min 0 min 886 W/m 16,1 km/h (3 Bft) 95,74 %
25.06.2022 12:08 24,8 C 26,1 C 23,3 C 60 % 1012,1 hPa 0,0 l/m 4 min 0 min 929 W/m 16,1 km/h (3 Bft) 95,18 %
25.06.2022 12:10 24,9 C 26,7 C 24,4 C 61 % 1012,0 hPa 0,0 l/m 2 min 0 min 948 W/m 16,1 km/h (3 Bft) 95,74 %
25.06.2022 12:12 25,1 C 27,2 C 25,0 C 62 % 1012,0 hPa 0,0 l/m 2 min 0 min 918 W/m 16,1 km/h (3 Bft) 95,74 %
25.06.2022 12:14 25,2 C 27,2 C 25,6 C 60 % 1012,0 hPa 0,0 l/m 2 min 0 min 851 W/m 29,0 km/h (5 Bft) 95,74 %
25.06.2022 12:16 25,3 C 27,2 C 26,1 C 60 % 1012,0 hPa 0,0 l/m 2 min 0 min 787 W/m 22,5 km/h (4 Bft) 93,48 %
25.06.2022 12:18 25,3 C 26,7 C 26,1 C 59 % 1012,0 hPa 0,0 l/m 2 min 0 min 828 W/m 19,3 km/h (3 Bft) 95,74 %
25.06.2022 12:20 25,3 C 26,7 C 26,1 C 59 % 1012,0 hPa 0,0 l/m 2 min 0 min 844 W/m 25,7 km/h (4 Bft) 95,74 %
25.06.2022 12:22 25,3 C 26,7 C 26,7 C 59 % 1012,0 hPa 0,0 l/m 2 min 0 min 882 W/m 6,4 km/h (2 Bft) 97,87 %
25.06.2022 12:24 25,3 C 26,7 C 27,8 C 59 % 1012,0 hPa 0,0 l/m 2 min 0 min 1018 W/m 19,3 km/h (3 Bft) 97,87 %
25.06.2022 12:26 25,3 C 26,7 C 27,2 C 58 % 1012,1 hPa 0,0 l/m 2 min 0 min 742 W/m 25,7 km/h (4 Bft) 95,65 %
25.06.2022 12:28 25,3 C 26,7 C 28,3 C 58 % 1012,0 hPa 0,0 l/m 2 min 0 min 840 W/m 22,5 km/h (4 Bft) 97,87 %
25.06.2022 12:30 25,4 C 27,2 C 29,4 C 59 % 1011,9 hPa 0,0 l/m 2 min 0 min 1033 W/m 19,3 km/h (3 Bft) 97,87 %
25.06.2022 12:32 25,5 C 27,2 C 30,6 C 59 % 1011,9 hPa 0,0 l/m 2 min 0 min 1049 W/m 16,1 km/h (3 Bft) 97,87 %
25.06.2022 12:35 25,6 C 27,2 C 30,6 C 59 % 1011,9 hPa 0,0 l/m 3 min 0 min 1051 W/m 29,0 km/h (5 Bft) 97,56 %
25.06.2022 12:36 25,7 C 27,2 C 30,6 C 59 % 1011,9 hPa 0,0 l/m 1 min 0 min 1073 W/m 19,3 km/h (3 Bft) 95,65 %
25.06.2022 12:38 25,8 C 27,8 C 29,4 C 59 % 1011,9 hPa 0,0 l/m 2 min 0 min 1113 W/m 16,1 km/h (3 Bft) 97,87 %
25.06.2022 12:40 25,8 C 27,8 C 28,3 C 59 % 1011,9 hPa 0,0 l/m 2 min 0 min 597 W/m 19,3 km/h (3 Bft) 97,14 %
25.06.2022 12:42 25,8 C 26,7 C 26,7 C 58 % 1011,9 hPa 0,0 l/m 0 min 0 min 305 W/m 9,7 km/h (2 Bft) 97,87 %
25.06.2022 12:44 25,7 C 26,1 C 25,0 C 58 % 1011,9 hPa 0,0 l/m 0 min 0 min 286 W/m 16,1 km/h (3 Bft) 98,31 %
25.06.2022 12:46 25,7 C 26,1 C 24,4 C 58 % 1011,9 hPa 0,0 l/m 0 min 0 min 258 W/m 12,9 km/h (3 Bft) 97,14 %
25.06.2022 12:48 25,6 C 26,1 C 23,3 C 58 % 1011,9 hPa 0,0 l/m 0 min 0 min 226 W/m 9,7 km/h (2 Bft) 97,87 %
25.06.2022 12:50 25,6 C 25,6 C 22,8 C 58 % 1011,9 hPa 0,0 l/m 0 min 0 min 222 W/m 12,9 km/h (3 Bft) 96,55 %
25.06.2022 12:52 25,5 C 25,0 C 22,8 C 58 % 1011,9 hPa 0,0 l/m 0 min 0 min 248 W/m 16,1 km/h (3 Bft) 100,00 %
25.06.2022 12:54 25,4 C 25,6 C 23,9 C 58 % 1012,0 hPa 0,0 l/m 0 min 0 min 248 W/m 16,1 km/h (3 Bft) 100,00 %
25.06.2022 12:56 25,4 C 25,6 C 23,9 C 59 % 1011,9 hPa 0,0 l/m 0 min 0 min 308 W/m 12,9 km/h (3 Bft) 100,00 %
25.06.2022 12:58 25,4 C 25,6 C 23,3 C 59 % 1012,0 hPa 0,0 l/m 0 min 0 min 308 W/m 19,3 km/h (3 Bft) 100,00 %
25.06.2022 13:00 25,4 C 25,6 C 23,9 C 59 % 1012,0 hPa 0,0 l/m 0 min 0 min 311 W/m 6,4 km/h (2 Bft) 100,00 %
25.06.2022 13:02 25,4 C 26,1 C 24,4 C 60 % 1012,0 hPa 0,0 l/m 0 min 0 min 311 W/m 16,1 km/h (3 Bft) 97,83 %
25.06.2022 13:04 25,4 C 25,6 C 23,9 C 59 % 1012,0 hPa 0,0 l/m 0 min 0 min 294 W/m 16,1 km/h (3 Bft) 97,87 %
25.06.2022 13:06 25,4 C 25,6 C 23,3 C 59 % 1012,0 hPa 0,0 l/m 0 min 0 min 270 W/m 12,9 km/h (3 Bft) 100,00 %
25.06.2022 13:08 25,3 C 25,6 C 22,8 C 59 % 1011,9 hPa 0,0 l/m 0 min 0 min 264 W/m 6,4 km/h (2 Bft) 100,00 %
25.06.2022 13:10 25,3 C 25,6 C 22,8 C 59 % 1012,0 hPa 0,0 l/m 0 min 0 min 277 W/m 16,1 km/h (3 Bft) 100,00 %
25.06.2022 13:12 25,2 C 25,6 C 22,8 C 60 % 1011,9 hPa 0,0 l/m 0 min 0 min 330 W/m 6,4 km/h (2 Bft) 100,00 %
25.06.2022 13:14 25,3 C 25,6 C 22,8 C 60 % 1012,0 hPa 0,0 l/m 0 min 0 min 359 W/m 12,9 km/h (3 Bft) 100,00 %
25.06.2022 13:16 25,2 C 25,6 C 22,8 C 60 % 1011,9 hPa 0,0 l/m 0 min 0 min 314 W/m 12,9 km/h (3 Bft) 100,00 %
25.06.2022 13:18 25,2 C 25,0 C 22,8 C 60 % 1011,9 hPa 0,0 l/m 0 min 0 min 288 W/m 12,9 km/h (3 Bft) 100,00 %
25.06.2022 13:20 25,2 C 25,0 C 22,2 C 60 % 1012,0 hPa 0,0 l/m 0 min 0 min 270 W/m 19,3 km/h (3 Bft) 95,74 %
25.06.2022 13:22 25,1 C 25,0 C 22,2 C 60 % 1011,9 hPa 0,0 l/m 0 min 0 min 271 W/m 12,9 km/h (3 Bft) 100,00 %
25.06.2022 13:24 25,0 C 25,0 C 22,2 C 60 % 1012,0 hPa 0,0 l/m 0 min 0 min 278 W/m 12,9 km/h (3 Bft) 100,00 %
25.06.2022 13:26 24,9 C 24,4 C 21,7 C 60 % 1012,0 hPa 0,0 l/m 0 min 0 min 284 W/m 16,1 km/h (3 Bft) 97,83 %
25.06.2022 13:28 24,8 C 24,4 C 21,7 C 61 % 1012,0 hPa 0,0 l/m 0 min 0 min 274 W/m 16,1 km/h (3 Bft) 100,00 %
25.06.2022 13:30 24,7 C 24,4 C 21,7 C 60 % 1012,0 hPa 0,0 l/m 0 min 0 min 265 W/m 16,1 km/h (3 Bft) 95,74 %
25.06.2022 13:32 24,7 C 24,4 C 21,7 C 61 % 1011,9 hPa 0,0 l/m 0 min 0 min 248 W/m 12,9 km/h (3 Bft) 100,00 %
25.06.2022 13:34 24,7 C 25,0 C 21,7 C 62 % 1012,0 hPa 0,0 l/m 0 min 0 min 242 W/m 6,4 km/h (2 Bft) 100,00 %
25.06.2022 13:36 24,8 C 25,0 C 21,7 C 62 % 1012,0 hPa 0,0 l/m 0 min 0 min 249 W/m 12,9 km/h (3 Bft) 96,55 %
25.06.2022 13:38 24,8 C 25,0 C 21,7 C 61 % 1012,0 hPa 0,0 l/m 0 min 0 min 276 W/m 29,0 km/h (5 Bft) 97,87 %
25.06.2022 13:40 24,8 C 25,0 C 21,7 C 61 % 1012,0 hPa 0,0 l/m 0 min 0 min 323 W/m 12,9 km/h (3 Bft) 100,00 %
25.06.2022 13:42 24,7 C 25,0 C 21,7 C 60 % 1012,0 hPa 0,0 l/m 0 min 0 min 372 W/m 16,1 km/h (3 Bft) 97,87 %
25.06.2022 13:44 24,7 C 25,0 C 21,7 C 60 % 1012,0 hPa 0,0 l/m 0 min 0 min 394 W/m 19,3 km/h (3 Bft) 95,74 %
25.06.2022 13:46 24,7 C 25,0 C 21,7 C 61 % 1012,0 hPa 0,0 l/m 0 min 0 min 412 W/m 19,3 km/h (3 Bft) 97,87 %
25.06.2022 13:48 24,7 C 25,6 C 21,7 C 61 % 1012,0 hPa 0,0 l/m 0 min 0 min 446 W/m 6,4 km/h (2 Bft) 95,74 %
25.06.2022 13:50 24,8 C 25,6 C 22,2 C 61 % 1012,0 hPa 0,0 l/m 2 min 0 min 469 W/m 19,3 km/h (3 Bft) 97,83 %
25.06.2022 13:52 24,8 C 25,6 C 22,2 C 60 % 1012,0 hPa 0,0 l/m 0 min 0 min 434 W/m 12,9 km/h (3 Bft) 95,74 %
25.06.2022 13:54 24,8 C 25,6 C 22,2 C 60 % 1012,0 hPa 0,0 l/m 2 min 0 min 460 W/m 6,4 km/h (2 Bft) 97,87 %
25.06.2022 13:56 24,9 C 26,1 C 22,2 C 60 % 1011,9 hPa 0,0 l/m 2 min 0 min 468 W/m 6,4 km/h (2 Bft) 95,74 %
25.06.2022 13:58 25,0 C 26,1 C 22,8 C 61 % 1011,9 hPa 0,0 l/m 2 min 0 min 522 W/m 9,7 km/h (2 Bft) 95,74 %
25.06.2022 14:00 25,2 C 26,7 C 22,8 C 61 % 1012,0 hPa 0,0 l/m 2 min 0 min 514 W/m 16,1 km/h (3 Bft) 95,74 %
25.06.2022 14:02 25,2 C 26,1 C 22,8 C 60 % 1012,0 hPa 0,0 l/m 2 min 0 min 486 W/m 19,3 km/h (3 Bft) 97,83 %
25.06.2022 14:04 25,2 C 26,1 C 22,8 C 60 % 1012,0 hPa 0,0 l/m 0 min 0 min 452 W/m 19,3 km/h (3 Bft) 97,87 %
25.06.2022 14:06 25,2 C 26,1 C 22,8 C 60 % 1012,0 hPa 0,0 l/m 2 min 0 min 452 W/m 12,9 km/h (3 Bft) 98,31 %
25.06.2022 14:08 25,2 C 26,1 C 22,8 C 60 % 1012,1 hPa 0,0 l/m 0 min 0 min 447 W/m 19,3 km/h (3 Bft) 100,00 %
25.06.2022 14:10 25,2 C 26,1 C 22,8 C 59 % 1012,0 hPa 0,0 l/m 0 min 0 min 428 W/m 9,7 km/h (2 Bft) 100,00 %
25.06.2022 14:12 25,2 C 26,1 C 22,8 C 60 % 1012,0 hPa 0,0 l/m 0 min 0 min 394 W/m 6,4 km/h (2 Bft) 100,00 %
25.06.2022 14:14 25,2 C 26,1 C 22,8 C 60 % 1012,1 hPa 0,0 l/m 0 min 0 min 365 W/m 9,7 km/h (2 Bft) 100,00 %
25.06.2022 14:16 25,3 C 26,1 C 22,8 C 60 % 1012,0 hPa 0,0 l/m 0 min 0 min 407 W/m 12,9 km/h (3 Bft) 100,00 %
25.06.2022 14:18 25,3 C 26,1 C 22,8 C 60 % 1012,1 hPa 0,0 l/m 0 min 0 min 423 W/m 12,9 km/h (3 Bft) 100,00 %
25.06.2022 14:20 25,3 C 26,1 C 22,8 C 60 % 1012,0 hPa 0,0 l/m 0 min 0 min 410 W/m 9,7 km/h (2 Bft) 100,00 %
25.06.2022 14:22 25,3 C 26,1 C 22,8 C 60 % 1012,1 hPa 0,0 l/m 0 min 0 min 424 W/m 6,4 km/h (2 Bft) 97,87 %
25.06.2022 14:24 25,3 C 26,1 C 22,8 C 60 % 1012,1 hPa 0,0 l/m 0 min 0 min 426 W/m 9,7 km/h (2 Bft) 100,00 %
25.06.2022 14:26 25,4 C 26,1 C 22,8 C 60 % 1012,0 hPa 0,0 l/m 0 min 0 min 439 W/m 12,9 km/h (3 Bft) 100,00 %
25.06.2022 14:28 25,4 C 26,1 C 22,8 C 60 % 1012,0 hPa 0,0 l/m 0 min 0 min 421 W/m 9,7 km/h (2 Bft) 97,87 %
25.06.2022 14:30 25,4 C 26,1 C 22,8 C 60 % 1012,1 hPa 0,0 l/m 0 min 0 min 423 W/m 12,9 km/h (3 Bft) 100,00 %
25.06.2022 14:32 25,4 C 26,1 C 22,8 C 60 % 1012,0 hPa 0,0 l/m 0 min 0 min 422 W/m 6,4 km/h (2 Bft) 97,87 %
25.06.2022 14:34 25,4 C 25,6 C 22,2 C 59 % 1012,0 hPa 0,0 l/m 0 min 0 min 412 W/m 9,7 km/h (2 Bft) 97,87 %
25.06.2022 14:36 25,4 C 25,6 C 22,2 C 59 % 1012,0 hPa 0,0 l/m 0 min 0 min 412 W/m 3,2 km/h (1 Bft) 100,00 %
25.06.2022 14:38 25,4 C 25,6 C 22,2 C 60 % 1012,1 hPa 0,0 l/m 0 min 0 min 416 W/m 9,7 km/h (2 Bft) 100,00 %
25.06.2022 14:40 25,4 C 26,1 C 22,2 C 60 % 1012,0 hPa 0,0 l/m 2 min 0 min 469 W/m 9,7 km/h (2 Bft) 97,14 %
25.06.2022 14:42 25,5 C 26,7 C 22,8 C 60 % 1012,0 hPa 0,0 l/m 2 min 0 min 469 W/m 6,4 km/h (2 Bft) 95,74 %
25.06.2022 14:44 25,6 C 26,1 C 22,8 C 59 % 1012,0 hPa 0,0 l/m 2 min 0 min 445 W/m 19,3 km/h (3 Bft) 95,74 %
25.06.2022 14:46 25,6 C 26,1 C 22,8 C 59 % 1012,0 hPa 0,0 l/m 0 min 0 min 429 W/m 12,9 km/h (3 Bft) 93,62 %
25.06.2022 14:48 25,6 C 26,1 C 22,2 C 60 % 1012,0 hPa 0,0 l/m 0 min 0 min 429 W/m 12,9 km/h (3 Bft) 95,74 %
25.06.2022 14:50 25,6 C 26,1 C 22,2 C 59 % 1012,1 hPa 0,0 l/m 2 min 0 min 489 W/m 16,1 km/h (3 Bft) 95,65 %
25.06.2022 14:52 25,6 C 26,7 C 22,8 C 59 % 1012,0 hPa 0,0 l/m 2 min 0 min 568 W/m 19,3 km/h (3 Bft) 93,62 %
25.06.2022 14:54 25,6 C 26,7 C 22,8 C 59 % 1012,0 hPa 0,0 l/m 2 min 0 min 524 W/m 12,9 km/h (3 Bft) 95,74 %
25.06.2022 14:56 25,6 C 26,7 C 22,8 C 59 % 1011,9 hPa 0,0 l/m 2 min 0 min 486 W/m 16,1 km/h (3 Bft) 91,49 %
25.06.2022 14:58 25,6 C 26,1 C 22,8 C 59 % 1011,9 hPa 0,0 l/m 2 min 0 min 461 W/m 9,7 km/h (2 Bft) 95,74 %
25.06.2022 15:00 25,6 C 26,1 C 22,8 C 59 % 1011,9 hPa 0,0 l/m 0 min 0 min 425 W/m 6,4 km/h (2 Bft) 95,74 %
25.06.2022 15:02 25,5 C 26,1 C 22,8 C 60 % 1011,9 hPa 0,0 l/m 0 min 0 min 398 W/m 6,4 km/h (2 Bft) 93,48 %
25.06.2022 15:04 25,6 C 26,7 C 22,8 C 60 % 1011,9 hPa 0,0 l/m 0 min 0 min 402 W/m 3,2 km/h (1 Bft) 95,74 %
25.06.2022 15:06 25,6 C 26,1 C 22,8 C 60 % 1011,9 hPa 0,0 l/m 0 min 0 min 413 W/m 12,9 km/h (3 Bft) 96,61 %
25.06.2022 15:08 25,6 C 26,7 C 22,8 C 60 % 1011,9 hPa 0,0 l/m 0 min 0 min 426 W/m 9,7 km/h (2 Bft) 94,29 %
25.06.2022 15:10 25,7 C 26,7 C 22,8 C 59 % 1012,0 hPa 0,0 l/m 2 min 0 min 432 W/m 9,7 km/h (2 Bft) 95,74 %
25.06.2022 15:12 25,7 C 26,7 C 22,8 C 59 % 1012,0 hPa 0,0 l/m 0 min 0 min 421 W/m 12,9 km/h (3 Bft) 95,74 %
25.06.2022 15:14 25,7 C 26,1 C 22,2 C 58 % 1011,9 hPa 0,0 l/m 0 min 0 min 406 W/m 16,1 km/h (3 Bft) 93,48 %
25.06.2022 15:16 25,7 C 26,1 C 22,2 C 58 % 1011,9 hPa 0,0 l/m 0 min 0 min 397 W/m 6,4 km/h (2 Bft) 93,62 %
25.06.2022 15:18 25,8 C 26,1 C 22,2 C 59 % 1011,9 hPa 0,0 l/m 0 min 0 min 381 W/m 12,9 km/h (3 Bft) 95,74 %
25.06.2022 15:20 25,8 C 26,1 C 22,2 C 59 % 1011,9 hPa 0,0 l/m 0 min 0 min 359 W/m 6,4 km/h (2 Bft) 95,74 %
25.06.2022 15:22 25,8 C 26,1 C 22,2 C 59 % 1011,9 hPa 0,0 l/m 0 min 0 min 348 W/m 16,1 km/h (3 Bft) 89,36 %
25.06.2022 15:24 25,8 C 26,1 C 22,2 C 58 % 1011,9 hPa 0,0 l/m 0 min 0 min 363 W/m 12,9 km/h (3 Bft) 97,87 %
25.06.2022 15:26 25,8 C 26,1 C 22,2 C 58 % 1012,0 hPa 0,0 l/m 0 min 0 min 388 W/m 12,9 km/h (3 Bft) 97,83 %
25.06.2022 15:28 25,9 C 26,7 C 22,2 C 59 % 1011,9 hPa 0,0 l/m 0 min 0 min 388 W/m 6,4 km/h (2 Bft) 95,74 %
25.06.2022 15:30 25,9 C 26,7 C 22,8 C 59 % 1012,0 hPa 0,0 l/m 0 min 0 min 390 W/m 12,9 km/h (3 Bft) 97,87 %
25.06.2022 15:32 25,9 C 26,7 C 22,8 C 59 % 1011,9 hPa 0,0 l/m 0 min 0 min 377 W/m 12,9 km/h (3 Bft) 95,74 %
25.06.2022 15:34 25,9 C 26,1 C 22,2 C 59 % 1011,9 hPa 0,0 l/m 0 min 0 min 347 W/m 12,9 km/h (3 Bft) 95,74 %
25.06.2022 15:36 26,0 C 26,1 C 22,2 C 59 % 1011,9 hPa 0,0 l/m 0 min 0 min 337 W/m 16,1 km/h (3 Bft) 93,10 %
25.06.2022 15:38 25,9 C 26,1 C 22,2 C 58 % 1011,9 hPa 0,0 l/m 0 min 0 min 374 W/m 6,4 km/h (2 Bft) 100,00 %
25.06.2022 15:40 26,0 C 26,1 C 22,2 C 59 % 1011,8 hPa 0,0 l/m 0 min 0 min 349 W/m 6,4 km/h (2 Bft) 97,14 %
25.06.2022 15:42 25,9 C 26,1 C 22,2 C 58 % 1011,9 hPa 0,0 l/m 0 min 0 min 326 W/m 12,9 km/h (3 Bft) 97,87 %
25.06.2022 15:44 25,9 C 26,1 C 22,2 C 58 % 1011,9 hPa 0,0 l/m 0 min 0 min 300 W/m 16,1 km/h (3 Bft) 97,87 %
25.06.2022 15:46 25,8 C 25,6 C 22,2 C 58 % 1012,0 hPa 0,0 l/m 0 min 0 min 271 W/m 9,7 km/h (2 Bft) 97,87 %
25.06.2022 15:48 25,8 C 25,6 C 22,2 C 58 % 1012,0 hPa 0,0 l/m 0 min 0 min 250 W/m 6,4 km/h (2 Bft) 97,87 %
25.06.2022 15:50 25,7 C 25,6 C 21,7 C 58 % 1011,9 hPa 0,0 l/m 0 min 0 min 232 W/m 9,7 km/h (2 Bft) 97,83 %
25.06.2022 15:52 25,7 C 25,0 C 21,7 C 59 % 1012,0 hPa 0,0 l/m 0 min 0 min 211 W/m 6,4 km/h (2 Bft) 97,87 %
25.06.2022 15:54 25,7 C 25,0 C 21,7 C 58 % 1012,0 hPa 0,0 l/m 0 min 0 min 192 W/m 9,7 km/h (2 Bft) 97,87 %
25.06.2022 15:55 25,6 C 25,0 C 21,7 C 58 % 1012,0 hPa 0,0 l/m 0 min 0 min 198 W/m 9,7 km/h (2 Bft) 100,00 %
25.06.2022 15:58 25,6 C 25,0 C 21,7 C 59 % 1012,0 hPa 0,0 l/m 0 min 0 min 190 W/m 6,4 km/h (2 Bft) 100,00 %
25.06.2022 16:00 25,6 C 25,0 C 21,7 C 59 % 1011,9 hPa 0,0 l/m 0 min 0 min 209 W/m 9,7 km/h (2 Bft) 100,00 %
25.06.2022 16:02 25,5 C 25,0 C 21,7 C 59 % 1012,0 hPa 0,0 l/m 0 min 0 min 226 W/m 12,9 km/h (3 Bft) 95,74 %
25.06.2022 16:04 25,4 C 25,0 C 21,7 C 59 % 1012,0 hPa 0,0 l/m 0 min 0 min 248 W/m 9,7 km/h (2 Bft) 97,87 %
25.06.2022 16:06 25,4 C 25,0 C 21,7 C 60 % 1012,0 hPa 0,0 l/m 0 min 0 min 259 W/m 9,7 km/h (2 Bft) 98,28 %
25.06.2022 16:08 25,4 C 25,0 C 21,7 C 60 % 1012,0 hPa 0,0 l/m 0 min 0 min 260 W/m 6,4 km/h (2 Bft) 100,00 %
25.06.2022 16:10 25,4 C 25,0 C 21,7 C 59 % 1012,0 hPa 0,0 l/m 0 min 0 min 258 W/m 12,9 km/h (3 Bft) 100,00 %
25.06.2022 16:12 25,4 C 25,0 C 21,7 C 60 % 1012,0 hPa 0,0 l/m 0 min 0 min 248 W/m 9,7 km/h (2 Bft) 100,00 %
25.06.2022 16:14 25,4 C 25,0 C 21,7 C 60 % 1012,0 hPa 0,0 l/m 0 min 0 min 230 W/m 12,9 km/h (3 Bft) 100,00 %
25.06.2022 16:16 25,4 C 25,0 C 21,7 C 60 % 1011,9 hPa 0,0 l/m 0 min 0 min 217 W/m 9,7 km/h (2 Bft) 100,00 %
25.06.2022 16:18 25,4 C 25,0 C 21,7 C 61 % 1011,9 hPa 0,0 l/m 0 min 0 min 241 W/m 3,2 km/h (1 Bft) 100,00 %
25.06.2022 16:20 25,4 C 25,0 C 21,7 C 60 % 1011,9 hPa 0,0 l/m 0 min 0 min 276 W/m 9,7 km/h (2 Bft) 100,00 %
25.06.2022 16:22 25,3 C 25,6 C 21,7 C 60 % 1011,9 hPa 0,0 l/m 0 min 0 min 298 W/m 9,7 km/h (2 Bft) 100,00 %
25.06.2022 16:24 25,3 C 25,6 C 21,7 C 60 % 1011,8 hPa 0,0 l/m 0 min 0 min 306 W/m 12,9 km/h (3 Bft) 100,00 %
25.06.2022 16:26 25,3 C 25,6 C 21,7 C 60 % 1011,9 hPa 0,0 l/m 0 min 0 min 317 W/m 9,7 km/h (2 Bft) 100,00 %
25.06.2022 16:28 25,4 C 25,6 C 21,7 C 60 % 1011,9 hPa 0,0 l/m 0 min 0 min 338 W/m 6,4 km/h (2 Bft) 100,00 %
25.06.2022 16:30 25,4 C 26,1 C 22,2 C 61 % 1011,8 hPa 0,0 l/m 0 min 0 min 347 W/m 6,4 km/h (2 Bft) 100,00 %
25.06.2022 16:32 25,5 C 26,1 C 22,2 C 60 % 1011,8 hPa 0,0 l/m 0 min 0 min 313 W/m 9,7 km/h (2 Bft) 97,87 %
25.06.2022 16:34 25,6 C 25,6 C 21,7 C 60 % 1011,7 hPa 0,0 l/m 0 min 0 min 274 W/m 6,4 km/h (2 Bft) 100,00 %
25.06.2022 16:36 25,5 C 25,0 C 21,7 C 59 % 1011,8 hPa 0,0 l/m 0 min 0 min 267 W/m 16,1 km/h (3 Bft) 95,74 %
25.06.2022 16:38 25,5 C 25,0 C 21,7 C 59 % 1011,6 hPa 0,0 l/m 0 min 0 min 258 W/m 6,4 km/h (2 Bft) 100,00 %
25.06.2022 16:40 25,5 C 25,6 C 21,7 C 59 % 1011,6 hPa 0,0 l/m 0 min 0 min 272 W/m 6,4 km/h (2 Bft) 100,00 %
25.06.2022 16:42 25,4 C 25,0 C 21,1 C 59 % 1011,6 hPa 0,0 l/m 0 min 0 min 269 W/m 12,9 km/h (3 Bft) 100,00 %
25.06.2022 16:44 25,4 C 25,0 C 21,1 C 59 % 1011,6 hPa 0,0 l/m 0 min 0 min 249 W/m 6,4 km/h (2 Bft) 100,00 %
25.06.2022 16:46 25,4 C 25,0 C 21,1 C 58 % 1011,5 hPa 0,0 l/m 0 min 0 min 271 W/m 6,4 km/h (2 Bft) 97,83 %
25.06.2022 16:48 25,4 C 25,6 C 21,1 C 59 % 1011,6 hPa 0,0 l/m 0 min 0 min 332 W/m 12,9 km/h (3 Bft) 100,00 %
25.06.2022 16:50 25,4 C 25,6 C 21,7 C 60 % 1011,5 hPa 0,0 l/m 0 min 0 min 305 W/m 9,7 km/h (2 Bft) 100,00 %
25.06.2022 16:52 25,4 C 25,6 C 21,7 C 59 % 1011,6 hPa 0,0 l/m 0 min 0 min 299 W/m 6,4 km/h (2 Bft) 100,00 %
25.06.2022 16:54 25,4 C 25,6 C 21,7 C 59 % 1011,6 hPa 0,0 l/m 0 min 0 min 302 W/m 6,4 km/h (2 Bft) 100,00 %
25.06.2022 16:56 25,4 C 25,6 C 21,7 C 60 % 1011,6 hPa 0,0 l/m 0 min 0 min 294 W/m 3,2 km/h (1 Bft) 100,00 %
25.06.2022 16:58 25,4 C 25,6 C 21,7 C 60 % 1011,6 hPa 0,0 l/m 0 min 0 min 299 W/m 3,2 km/h (1 Bft) 100,00 %
25.06.2022 17:00 25,5 C 25,6 C 21,7 C 60 % 1011,5 hPa 0,0 l/m 0 min 0 min 318 W/m 6,4 km/h (2 Bft) 100,00 %
25.06.2022 17:02 25,5 C 26,1 C 21,7 C 60 % 1011,6 hPa 0,0 l/m 2 min 0 min 364 W/m 6,4 km/h (2 Bft) 100,00 %
25.06.2022 17:04 25,6 C 26,1 C 21,7 C 60 % 1011,6 hPa 0,0 l/m 2 min 0 min 488 W/m 16,1 km/h (3 Bft) 100,00 %
25.06.2022 17:06 25,6 C 26,1 C 21,7 C 60 % 1011,5 hPa 0,0 l/m 2 min 0 min 471 W/m 16,1 km/h (3 Bft) 100,00 %
25.06.2022 17:08 25,6 C 26,1 C 21,7 C 60 % 1011,5 hPa 0,0 l/m 2 min 0 min 351 W/m 6,4 km/h (2 Bft) 97,87 %
25.06.2022 17:10 25,6 C 26,1 C 21,7 C 60 % 1011,5 hPa 0,0 l/m 0 min 0 min 326 W/m 12,9 km/h (3 Bft) 100,00 %
25.06.2022 17:12 25,7 C 26,1 C 21,7 C 61 % 1011,5 hPa 0,0 l/m 0 min 0 min 317 W/m 3,2 km/h (1 Bft) 95,74 %
25.06.2022 17:14 25,7 C 26,1 C 21,7 C 60 % 1011,4 hPa 0,0 l/m 0 min 0 min 316 W/m 9,7 km/h (2 Bft) 97,87 %
25.06.2022 17:16 25,7 C 26,1 C 21,7 C 60 % 1011,5 hPa 0,0 l/m 0 min 0 min 320 W/m 9,7 km/h (2 Bft) 97,87 %
25.06.2022 17:18 25,7 C 26,1 C 21,7 C 59 % 1011,5 hPa 0,0 l/m 0 min 0 min 272 W/m 12,9 km/h (3 Bft) 97,87 %
25.06.2022 17:20 25,8 C 25,6 C 21,7 C 60 % 1011,5 hPa 0,0 l/m 0 min 0 min 229 W/m 6,4 km/h (2 Bft) 97,87 %
25.06.2022 17:22 25,7 C 25,6 C 21,7 C 60 % 1011,5 hPa 0,0 l/m 0 min 0 min 226 W/m 9,7 km/h (2 Bft) 97,83 %
25.06.2022 17:24 25,7 C 25,0 C 21,7 C 59 % 1011,4 hPa 0,0 l/m 0 min 0 min 212 W/m 12,9 km/h (3 Bft) 95,74 %
25.06.2022 17:26 25,6 C 25,0 C 21,7 C 59 % 1011,4 hPa 0,0 l/m 0 min 0 min 195 W/m 6,4 km/h (2 Bft) 97,87 %
25.06.2022 17:28 25,6 C 24,4 C 21,1 C 59 % 1011,4 hPa 0,0 l/m 0 min 0 min 179 W/m 6,4 km/h (2 Bft) 97,87 %
25.06.2022 17:30 25,6 C 24,4 C 21,1 C 59 % 1011,4 hPa 0,0 l/m 0 min 0 min 157 W/m 12,9 km/h (3 Bft) 95,74 %
25.06.2022 17:32 25,5 C 24,4 C 21,1 C 59 % 1011,4 hPa 0,0 l/m 0 min 0 min 131 W/m 6,4 km/h (2 Bft) 97,83 %
25.06.2022 17:34 25,4 C 24,4 C 21,1 C 60 % 1011,3 hPa 0,0 l/m 0 min 0 min 126 W/m 6,4 km/h (2 Bft) 95,74 %
25.06.2022 17:36 25,4 C 24,4 C 21,1 C 60 % 1011,4 hPa 0,0 l/m 0 min 0 min 131 W/m 6,4 km/h (2 Bft) 93,62 %
25.06.2022 17:38 25,4 C 24,4 C 21,1 C 60 % 1011,3 hPa 0,0 l/m 0 min 0 min 138 W/m 6,4 km/h (2 Bft) 95,74 %
25.06.2022 17:40 25,4 C 24,4 C 21,1 C 60 % 1011,3 hPa 0,0 l/m 0 min 0 min 135 W/m 3,2 km/h (1 Bft) 95,74 %
25.06.2022 17:42 25,3 C 24,4 C 21,1 C 60 % 1011,3 hPa 0,0 l/m 0 min 0 min 128 W/m 6,4 km/h (2 Bft) 95,74 %
25.06.2022 17:44 25,3 C 23,9 C 20,6 C 61 % 1011,3 hPa 0,0 l/m 0 min 0 min 122 W/m 6,4 km/h (2 Bft) 95,74 %
25.06.2022 17:46 25,2 C 23,9 C 20,6 C 60 % 1011,3 hPa 0,0 l/m 0 min 0 min 124 W/m 6,4 km/h (2 Bft) 93,48 %
25.06.2022 17:48 25,2 C 23,9 C 20,6 C 60 % 1011,3 hPa 0,0 l/m 0 min 0 min 135 W/m 3,2 km/h (1 Bft) 93,62 %
25.06.2022 17:50 25,2 C 23,9 C 20,6 C 60 % 1011,2 hPa 0,0 l/m 0 min 0 min 150 W/m 3,2 km/h (1 Bft) 93,62 %
25.06.2022 17:52 25,1 C 23,9 C 20,6 C 61 % 1011,2 hPa 0,0 l/m 0 min 0 min 150 W/m 3,2 km/h (1 Bft) 95,74 %
25.06.2022 17:54 25,1 C 23,9 C 20,6 C 61 % 1011,2 hPa 0,0 l/m 0 min 0 min 133 W/m 6,4 km/h (2 Bft) 97,87 %
25.06.2022 17:56 25,1 C 24,4 C 20,6 C 61 % 1011,2 hPa 0,0 l/m 0 min 0 min 119 W/m 6,4 km/h (2 Bft) 95,65 %
25.06.2022 17:58 25,1 C 24,4 C 20,6 C 61 % 1011,2 hPa 0,0 l/m 0 min 0 min 114 W/m 3,2 km/h (1 Bft) 95,74 %
25.06.2022 18:00 25,1 C 23,9 C 20,6 C 61 % 1011,3 hPa 0,0 l/m 0 min 0 min 119 W/m 6,4 km/h (2 Bft) 93,62 %
25.06.2022 18:02 25,1 C 23,9 C 20,6 C 61 % 1011,2 hPa 0,0 l/m 0 min 0 min 122 W/m 3,2 km/h (1 Bft) 95,74 %
25.06.2022 18:04 25,1 C 23,9 C 20,6 C 61 % 1011,2 hPa 0,0 l/m 0 min 0 min 117 W/m 3,2 km/h (1 Bft) 93,62 %
25.06.2022 18:07 25,0 C 23,9 C 20,6 C 61 % 1011,2 hPa 0,0 l/m 0 min 0 min 99 W/m 3,2 km/h (1 Bft) 95,71 %
25.06.2022 18:08 25,1 C 23,9 C 20,6 C 61 % 1011,2 hPa 0,0 l/m 0 min 0 min 83 W/m 6,4 km/h (2 Bft) 91,30 %
25.06.2022 18:10 25,0 C 23,9 C 20,6 C 61 % 1011,1 hPa 0,0 l/m 0 min 0 min 74 W/m 6,4 km/h (2 Bft) 95,74 %
25.06.2022 18:12 25,0 C 23,9 C 20,6 C 61 % 1011,2 hPa 0,0 l/m 0 min 0 min 65 W/m 3,2 km/h (1 Bft) 97,87 %
25.06.2022 18:14 25,0 C 23,9 C 20,6 C 62 % 1011,2 hPa 0,0 l/m 0 min 0 min 60 W/m 3,2 km/h (1 Bft) 97,87 %
25.06.2022 18:16 25,0 C 23,9 C 20,6 C 62 % 1011,2 hPa 0,0 l/m 0 min 0 min 56 W/m 3,2 km/h (1 Bft) 97,87 %
25.06.2022 18:18 24,9 C 23,9 C 20,6 C 61 % 1011,2 hPa 0,0 l/m 0 min 0 min 54 W/m 6,4 km/h (2 Bft) 97,87 %
25.06.2022 18:20 24,9 C 23,9 C 20,6 C 61 % 1011,2 hPa 0,0 l/m 0 min 0 min 51 W/m 6,4 km/h (2 Bft) 97,87 %
25.06.2022 18:22 24,9 C 23,9 C 20,6 C 62 % 1011,1 hPa 0,0 l/m 0 min 0 min 49 W/m 6,4 km/h (2 Bft) 95,65 %
25.06.2022 18:24 24,8 C 23,9 C 20,6 C 61 % 1011,1 hPa 0,0 l/m 0 min 0 min 50 W/m 3,2 km/h (1 Bft) 97,87 %
25.06.2022 18:26 24,8 C 23,9 C 20,6 C 62 % 1011,1 hPa 0,0 l/m 0 min 0 min 54 W/m 6,4 km/h (2 Bft) 97,87 %
25.06.2022 18:28 24,8 C 23,9 C 20,6 C 62 % 1011,1 hPa 0,0 l/m 0 min 0 min 65 W/m 3,2 km/h (1 Bft) 97,87 %
25.06.2022 18:30 24,8 C 23,9 C 20,6 C 62 % 1011,1 hPa 0,0 l/m 0 min 0 min 77 W/m 3,2 km/h (1 Bft) 97,87 %
25.06.2022 18:32 24,8 C 23,9 C 20,6 C 62 % 1011,1 hPa 0,0 l/m 0 min 0 min 91 W/m 6,4 km/h (2 Bft) 95,65 %
25.06.2022 18:34 24,7 C 23,9 C 20,6 C 62 % 1011,1 hPa 0,0 l/m 0 min 0 min 105 W/m 6,4 km/h (2 Bft) 97,87 %
25.06.2022 18:36 24,7 C 23,9 C 20,6 C 62 % 1011,1 hPa 0,0 l/m 0 min 0 min 121 W/m 3,2 km/h (1 Bft) 93,62 %
25.06.2022 18:38 24,7 C 23,9 C 20,6 C 62 % 1011,0 hPa 0,0 l/m 0 min 0 min 136 W/m 3,2 km/h (1 Bft) 97,87 %
25.06.2022 18:40 24,8 C 24,4 C 20,6 C 63 % 1011,0 hPa 0,0 l/m 0 min 0 min 157 W/m 3,2 km/h (1 Bft) 97,87 %
25.06.2022 18:42 24,8 C 24,4 C 20,6 C 63 % 1011,0 hPa 0,0 l/m 0 min 0 min 177 W/m 3,2 km/h (1 Bft) 97,87 %
25.06.2022 18:44 24,8 C 24,4 C 20,6 C 63 % 1011,0 hPa 0,0 l/m 0 min 0 min 212 W/m 3,2 km/h (1 Bft) 97,87 %
25.06.2022 18:46 24,8 C 25,6 C 20,6 C 63 % 1010,9 hPa 0,0 l/m 2 min 0 min 299 W/m 3,2 km/h (1 Bft) 97,83 %
25.06.2022 18:48 24,8 C 26,7 C 21,1 C 63 % 1010,9 hPa 0,0 l/m 2 min 0 min 322 W/m 3,2 km/h (1 Bft) 97,87 %
25.06.2022 18:50 24,9 C 26,7 C 21,1 C 63 % 1010,9 hPa 0,0 l/m 2 min 0 min 284 W/m 6,4 km/h (2 Bft) 97,87 %
25.06.2022 18:52 24,9 C 26,1 C 21,1 C 64 % 1010,9 hPa 0,0 l/m 0 min 0 min 213 W/m 3,2 km/h (1 Bft) 97,87 %
25.06.2022 18:54 25,1 C 26,1 C 21,1 C 64 % 1010,8 hPa 0,0 l/m 2 min 0 min 221 W/m 6,4 km/h (2 Bft) 100,00 %
25.06.2022 18:56 25,1 C 26,1 C 21,1 C 64 % 1010,9 hPa 0,0 l/m 2 min 0 min 224 W/m 3,2 km/h (1 Bft) 100,00 %
25.06.2022 18:58 25,2 C 26,1 C 21,1 C 64 % 1010,8 hPa 0,0 l/m 2 min 0 min 235 W/m 3,2 km/h (1 Bft) 100,00 %
25.06.2022 19:00 25,2 C 26,1 C 21,1 C 63 % 1010,8 hPa 0,0 l/m 2 min 0 min 210 W/m 3,2 km/h (1 Bft) 100,00 %
25.06.2022 19:02 25,2 C 25,6 C 21,1 C 62 % 1010,7 hPa 0,0 l/m 2 min 0 min 206 W/m 6,4 km/h (2 Bft) 100,00 %
25.06.2022 19:04 25,2 C 25,6 C 21,1 C 62 % 1010,7 hPa 0,0 l/m 0 min 0 min 190 W/m 3,2 km/h (1 Bft) 100,00 %
25.06.2022 19:06 25,2 C 25,6 C 21,1 C 62 % 1010,7 hPa 0,0 l/m 0 min 0 min 189 W/m 3,2 km/h (1 Bft) 97,87 %
25.06.2022 19:08 25,3 C 25,6 C 21,1 C 62 % 1010,7 hPa 0,0 l/m 2 min 0 min 199 W/m 3,2 km/h (1 Bft) 97,87 %
25.06.2022 19:10 25,3 C 25,6 C 21,1 C 62 % 1010,6 hPa 0,0 l/m 2 min 0 min 208 W/m 3,2 km/h (1 Bft) 100,00 %
25.06.2022 19:12 25,3 C 25,0 C 21,1 C 62 % 1010,6 hPa 0,0 l/m 2 min 0 min 208 W/m 6,4 km/h (2 Bft) 97,87 %
25.06.2022 19:14 25,3 C 25,0 C 21,1 C 62 % 1010,6 hPa 0,0 l/m 2 min 0 min 201 W/m 3,2 km/h (1 Bft) 97,87 %
25.06.2022 19:16 25,3 C 25,0 C 21,1 C 62 % 1010,6 hPa 0,0 l/m 2 min 0 min 190 W/m 3,2 km/h (1 Bft) 100,00 %
25.06.2022 19:18 25,3 C 25,0 C 21,1 C 62 % 1010,6 hPa 0,0 l/m 0 min 0 min 179 W/m 3,2 km/h (1 Bft) 100,00 %
25.06.2022 19:20 25,3 C 25,0 C 20,6 C 61 % 1010,6 hPa 0,0 l/m 0 min 0 min 172 W/m 3,2 km/h (1 Bft) 100,00 %
25.06.2022 19:22 25,3 C 25,0 C 20,6 C 62 % 1010,7 hPa 0,0 l/m 0 min 0 min 175 W/m 3,2 km/h (1 Bft) 100,00 %
25.06.2022 19:24 25,3 C 25,0 C 20,6 C 63 % 1010,7 hPa 0,0 l/m 0 min 0 min 152 W/m 6,4 km/h (2 Bft) 100,00 %
25.06.2022 19:26 25,3 C 24,4 C 20,6 C 62 % 1010,6 hPa 0,0 l/m 0 min 0 min 122 W/m 6,4 km/h (2 Bft) 100,00 %
25.06.2022 19:28 25,3 C 24,4 C 20,6 C 63 % 1010,6 hPa 0,0 l/m 0 min 0 min 116 W/m 6,4 km/h (2 Bft) 97,87 %
25.06.2022 19:30 25,3 C 24,4 C 20,6 C 63 % 1010,6 hPa 0,0 l/m 0 min 0 min 119 W/m 3,2 km/h (1 Bft) 100,00 %
25.06.2022 19:32 25,2 C 24,4 C 20,6 C 62 % 1010,6 hPa 0,0 l/m 0 min 0 min 127 W/m 3,2 km/h (1 Bft) 97,83 %
25.06.2022 19:34 25,2 C 24,4 C 20,6 C 62 % 1010,6 hPa 0,0 l/m 0 min 0 min 133 W/m 3,2 km/h (1 Bft) 100,00 %
25.06.2022 19:36 25,2 C 24,4 C 20,6 C 63 % 1010,6 hPa 0,0 l/m 0 min 0 min 133 W/m 3,2 km/h (1 Bft) 97,87 %
25.06.2022 19:38 25,2 C 24,4 C 20,6 C 62 % 1010,6 hPa 0,0 l/m 0 min 0 min 129 W/m 3,2 km/h (1 Bft) 95,74 %
25.06.2022 19:40 25,2 C 24,4 C 20,6 C 62 % 1010,6 hPa 0,0 l/m 0 min 0 min 126 W/m 3,2 km/h (1 Bft) 95,74 %
25.06.2022 19:42 25,2 C 24,4 C 20,6 C 63 % 1010,5 hPa 0,0 l/m 0 min 0 min 122 W/m 3,2 km/h (1 Bft) 97,87 %
25.06.2022 19:44 25,2 C 24,4 C 20,6 C 63 % 1010,5 hPa 0,0 l/m 0 min 0 min 119 W/m 3,2 km/h (1 Bft) 97,83 %
25.06.2022 19:46 25,2 C 24,4 C 20,6 C 63 % 1010,6 hPa 0,0 l/m 0 min 0 min 118 W/m 3,2 km/h (1 Bft) 95,74 %
25.06.2022 19:48 25,2 C 24,4 C 20,6 C 64 % 1010,6 hPa 0,0 l/m 0 min 0 min 121 W/m 3,2 km/h (1 Bft) 93,62 %
25.06.2022 19:50 25,2 C 24,4 C 20,6 C 64 % 1010,6 hPa 0,0 l/m 0 min 0 min 120 W/m 0,0 km/h (0 Bft) 95,74 %
25.06.2022 19:52 25,2 C 24,4 C 20,6 C 64 % 1010,6 hPa 0,0 l/m 0 min 0 min 121 W/m 0,0 km/h (0 Bft) 93,62 %
25.06.2022 19:54 25,2 C 24,4 C 20,6 C 65 % 1010,6 hPa 0,0 l/m 0 min 0 min 120 W/m 3,2 km/h (1 Bft) 93,62 %
25.06.2022 19:56 25,2 C 24,4 C 20,0 C 66 % 1010,6 hPa 0,0 l/m 0 min 0 min 114 W/m 0,0 km/h (0 Bft) 95,65 %
25.06.2022 19:58 25,2 C 24,4 C 20,6 C 66 % 1010,6 hPa 0,0 l/m 0 min 0 min 108 W/m 0,0 km/h (0 Bft) 95,74 %
25.06.2022 20:00 25,2 C 24,4 C 20,6 C 66 % 1010,6 hPa 0,0 l/m 0 min 0 min 103 W/m 3,2 km/h (1 Bft) 95,74 %
25.06.2022 20:02 25,2 C 24,4 C 20,0 C 66 % 1010,6 hPa 0,0 l/m 0 min 0 min 106 W/m 0,0 km/h (0 Bft) 95,74 %
25.06.2022 20:04 25,2 C 24,4 C 20,0 C 67 % 1010,7 hPa 0,0 l/m 0 min 0 min 92 W/m 3,2 km/h (1 Bft) 93,62 %
25.06.2022 20:06 25,2 C 24,4 C 20,0 C 66 % 1010,7 hPa 0,0 l/m 0 min 0 min 91 W/m 0,0 km/h (0 Bft) 93,62 %
25.06.2022 20:08 25,2 C 23,9 C 20,0 C 66 % 1010,7 hPa 0,0 l/m 0 min 0 min 87 W/m 0,0 km/h (0 Bft) 95,74 %
25.06.2022 20:10 25,1 C 23,9 C 20,0 C 66 % 1010,7 hPa 0,0 l/m 0 min 0 min 83 W/m 0,0 km/h (0 Bft) 95,65 %
25.06.2022 20:12 25,1 C 23,9 C 20,0 C 66 % 1010,7 hPa 0,0 l/m 0 min 0 min 80 W/m 3,2 km/h (1 Bft) 97,87 %
25.06.2022 20:14 25,1 C 23,9 C 20,0 C 66 % 1010,7 hPa 0,0 l/m 0 min 0 min 78 W/m 3,2 km/h (1 Bft) 97,87 %
25.06.2022 20:16 25,0 C 23,9 C 20,0 C 66 % 1010,7 hPa 0,0 l/m 0 min 0 min 74 W/m 3,2 km/h (1 Bft) 97,87 %
25.06.2022 20:18 24,9 C 23,9 C 20,0 C 67 % 1010,8 hPa 0,0 l/m 0 min 0 min 70 W/m 0,0 km/h (0 Bft) 97,87 %
25.06.2022 20:20 24,9 C 23,9 C 20,0 C 67 % 1010,8 hPa 0,0 l/m 0 min 0 min 64 W/m 0,0 km/h (0 Bft) 97,83 %
25.06.2022 20:22 24,9 C 23,9 C 20,0 C 67 % 1010,8 hPa 0,0 l/m 0 min 0 min 57 W/m 0,0 km/h (0 Bft) 97,87 %
25.06.2022 20:24 24,8 C 23,3 C 20,0 C 67 % 1010,8 hPa 0,0 l/m 0 min 0 min 52 W/m 0,0 km/h (0 Bft) 95,74 %
25.06.2022 20:26 24,8 C 23,3 C 19,4 C 68 % 1010,8 hPa 0,0 l/m 0 min 0 min 47 W/m 0,0 km/h (0 Bft) 100,00 %
25.06.2022 20:28 24,8 C 23,3 C 19,4 C 68 % 1010,8 hPa 0,0 l/m 0 min 0 min 41 W/m 0,0 km/h (0 Bft) 100,00 %
25.06.2022 20:30 24,7 C 23,3 C 19,4 C 67 % 1010,8 hPa 0,0 l/m 0 min 0 min 37 W/m 0,0 km/h (0 Bft) 97,87 %
25.06.2022 20:32 24,7 C 23,3 C 19,4 C 68 % 1010,8 hPa 0,0 l/m 0 min 0 min 33 W/m 0,0 km/h (0 Bft) 97,83 %
25.06.2022 20:34 24,7 C 23,3 C 19,4 C 68 % 1010,7 hPa 0,0 l/m 0 min 0 min 30 W/m 0,0 km/h (0 Bft) 97,87 %
25.06.2022 20:36 24,6 C 23,3 C 19,4 C 68 % 1010,7 hPa 0,0 l/m 0 min 0 min 30 W/m 3,2 km/h (1 Bft) 100,00 %
25.06.2022 20:38 24,6 C 22,8 C 18,9 C 67 % 1010,7 hPa 0,0 l/m 0 min 0 min 30 W/m 3,2 km/h (1 Bft) 97,87 %
25.06.2022 20:40 24,6 C 22,8 C 18,9 C 67 % 1010,7 hPa 0,0 l/m 0 min 0 min 30 W/m 0,0 km/h (0 Bft) 97,87 %
25.06.2022 20:42 24,6 C 22,8 C 18,9 C 70 % 1010,7 hPa 0,0 l/m 0 min 0 min 30 W/m 0,0 km/h (0 Bft) 100,00 %
25.06.2022 20:44 24,5 C 22,8 C 18,9 C 71 % 1010,7 hPa 0,0 l/m 0 min 0 min 30 W/m 3,2 km/h (1 Bft) 100,00 %
25.06.2022 20:46 24,4 C 22,8 C 18,9 C 70 % 1010,7 hPa 0,0 l/m 0 min 0 min 30 W/m 0,0 km/h (0 Bft) 100,00 %
25.06.2022 20:48 24,4 C 22,8 C 18,9 C 71 % 1010,7 hPa 0,0 l/m 0 min 0 min 30 W/m 0,0 km/h (0 Bft) 100,00 %
25.06.2022 20:50 24,4 C 22,8 C 18,9 C 71 % 1010,7 hPa 0,0 l/m 0 min 0 min 28 W/m 0,0 km/h (0 Bft) 97,87 %
25.06.2022 20:52 24,3 C 22,8 C 18,9 C 71 % 1010,7 hPa 0,0 l/m 0 min 0 min 26 W/m 0,0 km/h (0 Bft) 97,87 %
25.06.2022 20:54 24,3 C 22,2 C 18,9 C 71 % 1010,7 hPa 0,0 l/m 0 min 0 min 25 W/m 0,0 km/h (0 Bft) 100,00 %
25.06.2022 20:56 24,2 C 22,2 C 18,9 C 71 % 1010,8 hPa 0,0 l/m 0 min 0 min 25 W/m 0,0 km/h (0 Bft) 100,00 %
25.06.2022 20:58 24,2 C 22,2 C 18,9 C 71 % 1010,7 hPa 0,0 l/m 0 min 0 min 25 W/m 0,0 km/h (0 Bft) 100,00 %
25.06.2022 21:00 24,1 C 22,2 C 18,3 C 72 % 1010,7 hPa 0,0 l/m 0 min 0 min 25 W/m 0,0 km/h (0 Bft) 97,87 %
25.06.2022 21:02 24,1 C 22,2 C 18,3 C 72 % 1010,7 hPa 0,0 l/m 0 min 0 min 23 W/m 0,0 km/h (0 Bft) 100,00 %
25.06.2022 21:04 24,0 C 22,2 C 18,3 C 72 % 1010,7 hPa 0,0 l/m 0 min 0 min 22 W/m 0,0 km/h (0 Bft) 100,00 %
25.06.2022 21:06 24,0 C 22,2 C 18,3 C 72 % 1010,7 hPa 0,0 l/m 0 min 0 min 21 W/m 0,0 km/h (0 Bft) 100,00 %
25.06.2022 21:08 23,9 C 22,2 C 18,3 C 72 % 1010,8 hPa 0,0 l/m 0 min 0 min 19 W/m 0,0 km/h (0 Bft) 100,00 %
25.06.2022 21:10 23,9 C 22,2 C 18,3 C 73 % 1010,8 hPa 0,0 l/m 0 min 0 min 18 W/m 0,0 km/h (0 Bft) 97,87 %
25.06.2022 21:12 23,8 C 22,2 C 18,3 C 73 % 1010,8 hPa 0,0 l/m 0 min 0 min 17 W/m 0,0 km/h (0 Bft) 97,87 %
25.06.2022 21:14 23,8 C 22,2 C 18,3 C 73 % 1010,8 hPa 0,0 l/m 0 min 0 min 16 W/m 0,0 km/h (0 Bft) 97,87 %
25.06.2022 21:16 23,8 C 22,2 C 18,3 C 73 % 1010,9 hPa 0,0 l/m 0 min 0 min 15 W/m 0,0 km/h (0 Bft) 97,87 %
25.06.2022 21:18 23,7 C 22,2 C 18,3 C 74 % 1010,8 hPa 0,0 l/m 0 min 0 min 13 W/m 0,0 km/h (0 Bft) 97,87 %
25.06.2022 21:20 23,7 C 21,7 C 18,3 C 74 % 1010,8 hPa 0,0 l/m 0 min 0 min 12 W/m 0,0 km/h (0 Bft) 97,83 %
25.06.2022 21:22 23,7 C 21,7 C 18,3 C 74 % 1010,9 hPa 0,0 l/m 0 min 0 min 12 W/m 0,0 km/h (0 Bft) 95,74 %
25.06.2022 21:24 23,6 C 21,7 C 18,3 C 74 % 1010,9 hPa 0,0 l/m 0 min 0 min 11 W/m 0,0 km/h (0 Bft) 97,87 %
25.06.2022 21:26 23,6 C 21,7 C 17,8 C 75 % 1010,8 hPa 0,0 l/m 0 min 0 min 11 W/m 0,0 km/h (0 Bft) 97,87 %
25.06.2022 21:28 23,6 C 21,7 C 17,8 C 74 % 1010,8 hPa 0,0 l/m 0 min 0 min 11 W/m 0,0 km/h (0 Bft) 97,87 %
25.06.2022 21:30 23,6 C 21,7 C 17,8 C 74 % 1010,8 hPa 0,0 l/m 0 min 0 min 9 W/m 0,0 km/h (0 Bft) 95,74 %
25.06.2022 21:32 23,5 C 21,7 C 17,8 C 73 % 1010,8 hPa 0,0 l/m 0 min 0 min 9 W/m 0,0 km/h (0 Bft) 97,83 %
25.06.2022 21:34 23,4 C 21,7 C 17,8 C 73 % 1010,9 hPa 0,0 l/m 0 min 0 min 8 W/m 0,0 km/h (0 Bft) 97,87 %
25.06.2022 21:36 23,4 C 21,7 C 17,8 C 73 % 1010,9 hPa 0,0 l/m 0 min 0 min 7 W/m 0,0 km/h (0 Bft) 97,87 %
25.06.2022 21:38 23,4 C 21,7 C 17,8 C 73 % 1010,9 hPa 0,0 l/m 0 min 0 min 7 W/m 0,0 km/h (0 Bft) 95,74 %
25.06.2022 21:40 23,3 C 21,7 C 17,8 C 73 % 1010,9 hPa 0,0 l/m 0 min 0 min 5 W/m 0,0 km/h (0 Bft) 95,74 %
25.06.2022 21:42 23,3 C 21,7 C 17,8 C 73 % 1011,0 hPa 0,0 l/m 0 min 0 min 5 W/m 0,0 km/h (0 Bft) 93,62 %
25.06.2022 21:44 23,3 C 21,1 C 17,8 C 74 % 1011,1 hPa 0,0 l/m 0 min 0 min 0 W/m 0,0 km/h (0 Bft) 95,65 %
25.06.2022 21:46 23,3 C 21,1 C 17,8 C 75 % 1011,0 hPa 0,0 l/m 0 min 0 min 0 W/m 0,0 km/h (0 Bft) 95,74 %
25.06.2022 21:48 23,2 C 21,1 C 17,8 C 75 % 1011,0 hPa 0,0 l/m 0 min 0 min 0 W/m 0,0 km/h (0 Bft) 95,74 %
25.06.2022 21:50 23,2 C 21,1 C 17,8 C 75 % 1011,0 hPa 0,0 l/m 0 min 0 min 0 W/m 0,0 km/h (0 Bft) 95,74 %
25.06.2022 21:52 23,2 C 21,1 C 17,8 C 74 % 1011,1 hPa 0,0 l/m 0 min 0 min 0 W/m 0,0 km/h (0 Bft) 95,74 %
25.06.2022 21:54 23,1 C 21,1 C 17,8 C 74 % 1011,1 hPa 0,0 l/m 0 min 0 min 0 W/m 0,0 km/h (0 Bft) 93,62 %
25.06.2022 21:56 23,1 C 21,1 C 17,8 C 74 % 1011,2 hPa 0,0 l/m 0 min 0 min 0 W/m 0,0 km/h (0 Bft) 95,65 %
25.06.2022 21:58 23,0 C 21,1 C 17,8 C 75 % 1011,2 hPa 0,0 l/m 0 min 0 min 0 W/m 0,0 km/h (0 Bft) 93,62 %
25.06.2022 22:00 22,9 C 21,1 C 17,8 C 76 % 1011,2 hPa 0,0 l/m 0 min 0 min 0 W/m 0,0 km/h (0 Bft) 97,87 %
25.06.2022 22:02 22,9 C 21,1 C 17,2 C 76 % 1011,2 hPa 0,0 l/m 0 min 0 min 0 W/m 0,0 km/h (0 Bft) 97,87 %
25.06.2022 22:04 22,9 C 20,6 C 17,2 C 77 % 1011,3 hPa 0,0 l/m 0 min 0 min 0 W/m 0,0 km/h (0 Bft) 97,87 %
25.06.2022 22:06 22,9 C 20,6 C 17,2 C 77 % 1011,2 hPa 0,0 l/m 0 min 0 min 0 W/m 0,0 km/h (0 Bft) 95,74 %
25.06.2022 22:08 22,9 C 20,6 C 17,2 C 77 % 1011,2 hPa 0,0 l/m 0 min 0 min 0 W/m 0,0 km/h (0 Bft) 97,83 %
25.06.2022 22:10 22,8 C 20,6 C 17,2 C 77 % 1011,3 hPa 0,0 l/m 0 min 0 min 0 W/m 0,0 km/h (0 Bft) 100,00 %
25.06.2022 22:12 22,8 C 20,6 C 17,2 C 77 % 1011,2 hPa 0,0 l/m 0 min 0 min 0 W/m 0,0 km/h (0 Bft) 100,00 %
25.06.2022 22:14 22,7 C 20,6 C 17,2 C 77 % 1011,3 hPa 0,0 l/m 0 min 0 min 0 W/m 0,0 km/h (0 Bft) 100,00 %
25.06.2022 22:16 22,7 C 20,6 C 17,2 C 78 % 1011,2 hPa 0,0 l/m 0 min 0 min 0 W/m 0,0 km/h (0 Bft) 100,00 %
25.06.2022 22:18 22,7 C 20,6 C 17,2 C 78 % 1011,2 hPa 0,0 l/m 0 min 0 min 0 W/m 3,2 km/h (1 Bft) 100,00 %
25.06.2022 22:20 22,6 C 20,6 C 17,2 C 78 % 1011,2 hPa 0,0 l/m 0 min 0 min 0 W/m 3,2 km/h (1 Bft) 100,00 %
25.06.2022 22:22 22,6 C 20,6 C 17,2 C 77 % 1011,2 hPa 0,0 l/m 0 min 0 min 0 W/m 3,2 km/h (1 Bft) 100,00 %
25.06.2022 22:24 22,5 C 20,6 C 17,2 C 77 % 1011,3 hPa 0,0 l/m 0 min 0 min 0 W/m 0,0 km/h (0 Bft) 97,87 %
25.06.2022 22:26 22,4 C 20,6 C 17,2 C 78 % 1011,3 hPa 0,0 l/m 0 min 0 min 0 W/m 3,2 km/h (1 Bft) 97,87 %
25.06.2022 22:28 22,2 C 20,6 C 17,2 C 77 % 1011,3 hPa 0,0 l/m 0 min 0 min 0 W/m 9,7 km/h (2 Bft) 97,87 %
25.06.2022 22:30 22,0 C 20,6 C 17,2 C 77 % 1011,3 hPa 0,0 l/m 0 min 0 min 0 W/m 9,7 km/h (2 Bft) 95,74 %
25.06.2022 22:32 21,9 C 20,0 C 17,2 C 78 % 1011,3 hPa 0,0 l/m 0 min 0 min 0 W/m 6,4 km/h (2 Bft) 97,83 %
25.06.2022 22:34 21,8 C 20,0 C 17,2 C 78 % 1011,4 hPa 0,0 l/m 0 min 0 min 0 W/m 12,9 km/h (3 Bft) 97,87 %
25.06.2022 22:36 21,7 C 20,0 C 17,2 C 78 % 1011,4 hPa 0,0 l/m 0 min 0 min 0 W/m 6,4 km/h (2 Bft) 97,87 %
25.06.2022 22:38 21,6 C 20,0 C 17,2 C 79 % 1011,4 hPa 0,0 l/m 0 min 0 min 0 W/m 6,4 km/h (2 Bft) 97,87 %
25.06.2022 22:40 21,5 C 20,0 C 17,2 C 79 % 1011,4 hPa 0,0 l/m 0 min 0 min 0 W/m 6,4 km/h (2 Bft) 97,87 %
25.06.2022 22:42 21,4 C 20,0 C 16,7 C 80 % 1011,4 hPa 0,0 l/m 0 min 0 min 0 W/m 6,4 km/h (2 Bft) 95,74 %
25.06.2022 22:44 21,3 C 20,0 C 16,7 C 80 % 1011,4 hPa 0,0 l/m 0 min 0 min 0 W/m 3,2 km/h (1 Bft) 97,83 %
25.06.2022 22:46 21,3 C 20,0 C 16,7 C 80 % 1011,4 hPa 0,0 l/m 0 min 0 min 0 W/m 6,4 km/h (2 Bft) 95,74 %
25.06.2022 22:48 21,2 C 19,4 C 16,7 C 81 % 1011,5 hPa 0,0 l/m 0 min 0 min 0 W/m 6,4 km/h (2 Bft) 97,87 %
25.06.2022 22:50 21,0 C 19,4 C 16,7 C 82 % 1011,5 hPa 0,0 l/m 0 min 0 min 0 W/m 3,2 km/h (1 Bft) 97,87 %
25.06.2022 22:52 20,8 C 19,4 C 16,1 C 82 % 1011,5 hPa 0,0 l/m 0 min 0 min 0 W/m 3,2 km/h (1 Bft) 95,74 %
25.06.2022 22:54 20,7 C 19,4 C 16,1 C 83 % 1011,4 hPa 0,0 l/m 0 min 0 min 0 W/m 3,2 km/h (1 Bft) 97,87 %
25.06.2022 22:56 20,7 C 19,4 C 16,1 C 83 % 1011,4 hPa 0,0 l/m 0 min 0 min 0 W/m 6,4 km/h (2 Bft) 95,65 %
25.06.2022 22:58 20,6 C 18,9 C 16,1 C 84 % 1011,3 hPa 0,0 l/m 0 min 0 min 0 W/m 6,4 km/h (2 Bft) 97,87 %
25.06.2022 23:00 20,6 C 18,9 C 16,1 C 84 % 1011,3 hPa 0,0 l/m 0 min 0 min 0 W/m 9,7 km/h (2 Bft) 95,74 %
25.06.2022 23:02 20,6 C 18,9 C 16,1 C 84 % 1011,3 hPa 0,0 l/m 0 min 0 min 0 W/m 6,4 km/h (2 Bft) 95,74 %
25.06.2022 23:04 20,5 C 18,9 C 15,6 C 84 % 1011,3 hPa 0,0 l/m 0 min 0 min 0 W/m 6,4 km/h (2 Bft) 97,87 %
25.06.2022 23:06 20,4 C 18,9 C 15,6 C 84 % 1011,3 hPa 0,0 l/m 0 min 0 min 0 W/m 6,4 km/h (2 Bft) 97,67 %
25.06.2022 23:08 20,4 C 18,9 C 15,6 C 84 % 1011,3 hPa 0,0 l/m 0 min 0 min 0 W/m 6,4 km/h (2 Bft) 95,74 %
25.06.2022 23:10 20,3 C 18,9 C 16,1 C 85 % 1011,3 hPa 0,0 l/m 0 min 0 min 0 W/m 3,2 km/h (1 Bft) 97,87 %
25.06.2022 23:12 20,3 C 18,9 C 15,6 C 85 % 1011,3 hPa 0,0 l/m 0 min 0 min 0 W/m 6,4 km/h (2 Bft) 100,00 %
25.06.2022 23:14 20,3 C 18,9 C 15,6 C 85 % 1011,4 hPa 0,0 l/m 0 min 0 min 0 W/m 3,2 km/h (1 Bft) 97,87 %
25.06.2022 23:16 20,2 C 18,9 C 15,6 C 85 % 1011,4 hPa 0,0 l/m 0 min 0 min 0 W/m 3,2 km/h (1 Bft) 100,00 %
25.06.2022 23:18 20,1 C 18,9 C 15,6 C 85 % 1011,4 hPa 0,0 l/m 0 min 0 min 0 W/m 0,0 km/h (0 Bft) 100,00 %
25.06.2022 23:20 20,1 C 18,9 C 15,6 C 86 % 1011,4 hPa 0,0 l/m 0 min 0 min 0 W/m 3,2 km/h (1 Bft) 100,00 %
25.06.2022 23:22 20,0 C 18,9 C 15,6 C 86 % 1011,3 hPa 0,0 l/m 0 min 0 min 0 W/m 3,2 km/h (1 Bft) 97,87 %
25.06.2022 23:24 19,9 C 18,9 C 15,6 C 86 % 1011,3 hPa 0,0 l/m 0 min 0 min 0 W/m 6,4 km/h (2 Bft) 97,87 %
25.06.2022 23:26 19,8 C 18,9 C 15,6 C 86 % 1011,3 hPa 0,0 l/m 0 min 0 min 0 W/m 6,4 km/h (2 Bft) 97,87 %
25.06.2022 23:28 19,8 C 18,3 C 15,6 C 86 % 1011,3 hPa 0,0 l/m 0 min 0 min 0 W/m 0,0 km/h (0 Bft) 100,00 %
25.06.2022 23:30 19,7 C 18,3 C 15,6 C 87 % 1011,3 hPa 0,0 l/m 0 min 0 min 0 W/m 3,2 km/h (1 Bft) 100,00 %
25.06.2022 23:32 19,7 C 18,3 C 15,6 C 87 % 1011,3 hPa 0,0 l/m 0 min 0 min 0 W/m 3,2 km/h (1 Bft) 97,87 %
25.06.2022 23:34 19,7 C 18,3 C 15,6 C 87 % 1011,4 hPa 0,0 l/m 0 min 0 min 0 W/m 3,2 km/h (1 Bft) 97,87 %
25.06.2022 23:36 19,7 C 18,3 C 15,6 C 87 % 1011,4 hPa 0,0 l/m 0 min 0 min 0 W/m 0,0 km/h (0 Bft) 96,55 %
25.06.2022 23:38 19,6 C 18,3 C 15,6 C 87 % 1011,4 hPa 0,0 l/m 0 min 0 min 0 W/m 3,2 km/h (1 Bft) 97,22 %
25.06.2022 23:40 19,6 C 18,3 C 15,6 C 88 % 1011,4 hPa 0,0 l/m 0 min 0 min 0 W/m 3,2 km/h (1 Bft) 97,83 %
25.06.2022 23:42 19,6 C 18,3 C 15,6 C 88 % 1011,4 hPa 0,0 l/m 0 min 0 min 0 W/m 0,0 km/h (0 Bft) 97,87 %
25.06.2022 23:44 19,5 C 18,3 C 15,6 C 88 % 1011,4 hPa 0,0 l/m 0 min 0 min 0 W/m 6,4 km/h (2 Bft) 97,87 %
25.06.2022 23:46 19,5 C 18,3 C 15,6 C 88 % 1011,4 hPa 0,0 l/m 0 min 0 min 0 W/m 3,2 km/h (1 Bft) 96,00 %
25.06.2022 23:48 19,5 C 18,9 C 15,6 C 88 % 1011,4 hPa 0,0 l/m 0 min 0 min 0 W/m 3,2 km/h (1 Bft) 97,87 %
25.06.2022 23:50 19,5 C 18,9 C 15,6 C 88 % 1011,3 hPa 0,0 l/m 0 min 0 min 0 W/m 6,4 km/h (2 Bft) 97,87 %
25.06.2022 23:52 19,4 C 18,9 C 15,6 C 88 % 1011,3 hPa 0,0 l/m 0 min 0 min 0 W/m 6,4 km/h (2 Bft) 97,83 %
25.06.2022 23:54 19,4 C 18,9 C 15,6 C 88 % 1011,2 hPa 0,0 l/m 0 min 0 min 0 W/m 0,0 km/h (0 Bft) 97,87 %
25.06.2022 23:56 19,4 C 18,9 C 15,6 C 88 % 1011,2 hPa 0,0 l/m 0 min 0 min 0 W/m 9,7 km/h (2 Bft) 95,74 %
25.06.2022 23:58 19,4 C 18,9 C 15,6 C 88 % 1011,2 hPa 0,0 l/m 0 min 0 min 0 W/m 9,7 km/h (2 Bft) 95,74 %
_ Min-Zeit 05:50 04:46 05:02 12:26 00:56 - - - - 02:28 07:46
Minimum _ 15,9 C 15,0 C 12,2 C 58 % 1009,1 hPa - - - - 0,0 km/h (0 Bft) 89,09 %
_ Max-Zeit 15:36 09:32 12:32 07:08 09:06 00:00 12:08 00:00 12:38 11:52 00:36
Maximum _ 26,0 C 28,9 C 30,6 C 96 % 1012,4 hPa 0,0 l/m 4 min 0 min 1113 W/m 35,4 km/h
O-SO (5 Bft)
100,00 %
Durchschnitt _ 21,7 C 21,7 C 18,5 C 75 % 1011,2 hPa #0,0 l/m #5:46 h #0 min. 313 W/m 8,2 km/h (2 Bft) 97,68 %
© 2022 W. Hausmann